GFSGBSN_925_temp_000.txt.gz
Temp
10 11 12 13 12 10 10 10 10 11 13 13 14 13 13 11 11 11 13 16 17 18 19 19 20 19 18 23 28 28 28 29 28 27 29 32 32 32 31 32 32 31 31 31 30 30 30
10 11 12 13 11 12 11 11 12 14 14 14 14 13 13 14 13 14 16 17 18 19 19 20 20 18 19 25 28 29 29 29 30 31 32 32 32 33 32 32 31 31 31 30 30 30 30
10 12 12 12 13 13 13 14 14 15 14 14 14 14 14 15 16 16 16 17 18 19 20 20 20 17 24 27 29 29 29 29 30 30 32 31 32 32 32 30 32 31 30 30 30 30 30
11 12 12 13 13 13 14 15 15 15 15 15 15 15 15 16 17 17 17 18 19 20 20 20 21 17 25 28 27 28 29 30 30 30 30 31 31 32 31 32 31 30 30 29 30 30 30
11 12 12 13 14 13 15 15 16 16 15 16 16 16 16 17 17 18 18 19 20 21 20 20 20 21 27 27 28 29 29 30 30 30 30 30 31 31 31 29 29 29 29 29 29 31 31
11 13 13 13 14 14 15 15 16 16 16 17 17 17 17 18 18 19 19 20 20 21 21 18 21 25 28 29 28 28 29 29 30 31 30 30 31 30 30 30 27 28 29 30 30 30 30
12 13 13 13 14 14 15 15 16 16 16 17 17 18 18 18 19 19 19 19 22 23 25 28 28 28 29 28 28 29 29 29 30 30 29 30 29 28 28 28 29 29 30 30 30 29 28
12 13 13 13 14 14 14 16 16 16 17 18 18 18 18 19 19 19 19 24 26 27 26 28 28 28 28 29 29 30 29 29 29 28 30 29 28 28 29 29 29 29 29 29 29 29 28
12 13 13 13 13 14 14 16 17 17 18 19 19 19 20 19 19 19 21 25 24 24 27 27 28 28 28 29 28 28 29 30 29 29 29 27 27 28 28 28 28 29 28 27 27 28 29
12 13 13 13 13 13 14 16 17 18 19 19 19 20 20 20 19 24 25 24 23 23 26 26 27 28 28 29 27 29 28 28 29 29 29 27 27 27 28 27 26 27 26 26 26 27 27
12 13 14 13 13 14 15 16 17 19 19 19 20 20 20 20 20 25 24 23 23 24 23 26 27 28 29 28 28 28 28 29 28 28 27 26 27 27 27 25 26 26 26 26 26 26 27
12 13 13 13 14 14 15 16 18 19 19 20 20 21 21 21 22 23 22 23 24 22 22 26 27 27 27 28 28 28 28 29 28 28 28 26 27 26 26 26 26 26 26 27 27 27 24
13 13 13 13 14 14 15 16 18 19 20 20 21 21 21 22 23 22 23 24 23 23 26 26 26 27 27 26 27 28 27 27 27 26 26 27 26 26 26 26 27 27 27 24 23 24 23
12 13 13 14 14 14 15 16 18 19 19 20 21 21 21 21 21 22 23 24 23 26 26 28 27 27 26 26 26 27 27 25 26 26 27 26 23 25 26 25 25 26 25 22 21 22 23
12 13 13 14 14 14 15 16 17 18 19 20 21 21 22 21 22 21 24 21 23 26 28 27 27 26 25 26 26 26 25 24 24 25 25 25 24 25 24 25 25 25 23 24 22 21 20
13 13 13 14 13 14 15 16 17 18 19 20 21 22 23 22 22 22 23 22 26 27 28 27 26 27 26 26 26 26 25 24 24 24 25 24 23 24 25 25 25 25 25 23 22 20 20
13 13 13 14 14 14 15 16 18 18 19 20 20 23 20 22 22 24 23 24 26 27 27 27 27 26 27 26 26 26 25 24 24 24 25 24 24 23 24 24 24 24 24 24 23 21 20
13 13 13 14 14 14 15 15 18 18 19 19 23 22 20 22 23 24 25 26 21 25 26 26 27 26 26 25 25 24 24 23 23 24 23 22 22 21 24 24 24 24 24 23 19 20 19
12 13 13 14 14 14 15 16 17 19 19 20 23 22 20 22 22 21 24 25 26 25 26 25 25 25 26 25 23 24 22 22 22 22 20 21 22 20 22 23 23 23 24 23 20 17 18
12 13 13 14 14 14 15 16 17 18 19 19 24 21 23 22 24 24 24 24 23 25 24 25 25 25 25 24 24 23 21 21 21 20 15 18 23 20 20 22 23 22 23 23 22 18 18
12 13 13 14 14 14 15 16 17 18 19 19 24 23 24 20 22 25 25 25 24 23 25 25 24 25 24 23 23 23 22 21 21 16 20 21 19 20 20 21 22 22 22 22 22 21 19
12 12 13 14 14 14 15 16 17 18 19 20 23 23 23 24 24 24 21 25 25 25 24 24 24 25 25 21 23 22 23 23 22 21 21 20 17 14 16 22 21 20 21 21 22 22 22
12 12 13 13 14 14 15 16 17 18 19 23 22 22 24 19 24 23 23 24 25 24 22 25 25 24 20 22 22 22 22 22 22 21 19 15 15 16 16 16 15 15 17 21 22 22 21
11 12 12 13 14 14 15 15 17 18 19 19 21 24 20 19 22 23 24 25 24 23 23 24 24 21 21 21 19 19 19 20 21 20 19 11 13 13 14 13 16 21 22 22 21 21 21
11 11 12 12 13 14 14 15 16 17 18 19 19 21 20 13 21 23 24 24 23 23 23 21 22 22 22 21 17 15 14 12 14 19 19 16 15 12 13 16 17 19 20 19 18 18 20
10 11 11 12 13 13 14 15 16 16 18 18 18 19 22 17 20 24 24 23 20 20 18 18 20 21 21 17 14 13 18 19 17 17 17 15 12 15 12 13 14 19 20 20 19 16 17
10 10 11 11 12 13 13 14 15 16 17 18 17 18 19 20 22 23 22 21 22 20 19 19 18 17 20 13 11 16 18 20 17 14 12 12 13 13 13 13 14 19 20 19 15 15 15
10 10 10 11 11 12 13 14 14 15 16 17 17 19 18 21 20 21 22 23 22 22 18 19 18 17 15 11 13 16 13 16 17 18 14 13 13 11 13 13 13 18 18 15 15 15 13
9 10 10 10 11 11 12 13 14 15 16 17 19 18 18 20 18 17 16 17 18 20 21 19 20 18 18 16 14 15 12 10 13 15 21 18 17 17 16 15 18 18 17 16 13 13 13

GFSGBSN_925_temp_003.txt.gz
Temp
10 10 10 11 12 12 11 11 12 11 11 12 12 13 14 14 14 11 12 13 15 15 16 17 16 18 17 18 22 27 28 27 27 26 25 25 26 27 26 26 29 27 27 27 27 28 26
10 10 10 12 12 13 12 12 13 14 14 14 14 14 14 14 14 13 13 14 15 17 17 17 17 17 16 21 28 28 28 29 28 26 27 27 28 29 29 28 27 28 27 26 27 28 29
10 10 11 12 12 13 13 13 15 15 15 15 15 15 14 14 15 15 14 15 16 17 18 17 17 17 18 22 27 28 29 29 30 30 29 31 30 27 30 28 29 27 26 26 26 26 27
10 11 12 13 12 14 14 13 15 15 16 16 15 15 15 15 16 16 16 17 18 18 18 18 17 16 20 27 28 29 29 30 30 30 30 30 31 28 28 28 29 28 26 24 26 26 27
11 11 12 13 13 14 14 15 16 16 16 16 16 16 16 16 16 17 18 18 19 19 19 16 17 17 22 28 28 28 29 29 30 30 30 30 30 28 28 25 24 26 23 25 26 26 26
11 11 13 13 13 14 14 15 16 17 16 16 16 16 17 17 17 18 18 19 19 19 18 16 17 20 23 27 28 29 29 29 29 29 29 29 26 25 23 22 23 25 24 24 24 27 28
12 12 12 13 14 14 14 16 16 17 17 17 17 17 17 18 18 18 17 18 16 18 16 21 23 24 27 28 28 28 29 29 28 28 25 26 22 22 25 27 27 26 26 24 25 27 28
12 13 13 13 14 14 15 16 16 17 17 17 17 18 18 18 18 18 17 16 23 23 22 24 27 28 28 28 27 28 29 27 27 25 25 25 23 26 26 28 26 27 25 24 25 27 27
12 13 13 13 13 14 15 16 17 17 17 18 18 18 19 19 19 19 19 21 23 24 22 26 27 27 27 28 26 27 27 26 26 25 23 22 25 27 27 24 24 24 23 24 25 25 25
12 13 13 13 13 14 15 16 17 18 18 18 18 18 20 20 19 21 20 23 24 23 19 24 25 27 28 27 26 28 29 27 28 24 24 24 27 26 26 24 24 23 24 24 24 23 22
12 13 13 13 14 14 15 16 17 18 18 19 19 19 20 20 20 21 23 23 24 23 16 25 26 28 28 27 25 27 28 27 25 26 25 25 23 23 24 24 24 24 25 24 24 23 23
13 13 13 14 14 14 15 16 18 18 18 19 20 20 20 20 20 22 23 24 24 16 19 25 26 25 26 26 27 27 27 28 27 25 24 24 24 24 24 25 25 25 24 23 23 22 18
13 13 13 14 14 14 15 16 18 18 19 20 20 21 21 21 20 22 23 21 16 15 25 24 25 26 25 26 25 25 25 23 22 23 22 24 24 24 25 23 24 23 21 16 17 15 17
13 13 13 14 14 14 15 16 17 18 19 20 20 20 21 22 22 23 23 18 20 24 24 26 25 25 24 26 25 26 23 21 22 22 23 21 19 22 23 23 23 22 22 16 19 14 18
12 13 13 14 14 14 15 15 17 18 19 20 20 21 21 23 23 23 17 15 18 23 26 25 25 24 24 25 25 24 21 21 21 21 21 21 21 23 23 24 23 23 19 23 17 16 15
13 13 13 14 14 14 14 16 16 18 19 20 20 21 22 23 23 22 16 17 24 26 26 26 24 25 23 24 24 23 22 22 22 22 22 22 21 23 24 24 24 22 23 18 15 17 16
12 13 13 14 14 14 14 15 17 17 19 20 20 17 21 22 23 17 15 19 25 24 24 25 25 25 24 23 24 23 22 21 22 23 20 20 20 21 23 21 21 21 21 21 20 15 14
13 13 13 14 14 14 14 15 16 17 18 18 18 17 21 21 17 16 18 23 22 24 25 25 24 25 24 24 22 21 20 21 21 20 21 21 17 14 21 23 23 23 22 20 13 17 12
13 13 13 14 14 14 14 15 16 18 18 19 17 17 20 20 14 12 21 24 25 24 25 25 24 24 24 23 21 20 20 19 19 18 18 19 17 14 18 20 21 22 22 19 16 12 15
13 12 13 14 14 14 15 15 16 18 18 19 17 15 16 16 18 20 22 23 23 23 23 24 23 25 22 22 22 20 19 20 19 19 15 17 19 16 14 19 19 21 21 21 17 11 14
12 12 13 13 13 14 15 16 16 18 18 19 17 16 16 12 15 19 21 21 22 22 24 24 24 23 22 21 21 18 19 19 19 17 19 17 15 16 17 18 19 20 20 20 20 17 14
12 12 13 13 13 14 15 16 16 18 19 19 18 18 19 17 20 21 19 23 21 22 22 22 23 22 21 18 20 19 19 19 19 19 19 15 12 13 16 17 17 17 17 17 18 19 19
12 12 13 13 13 14 15 16 16 18 18 18 21 21 17 15 19 18 17 23 23 21 22 22 21 17 15 17 16 17 17 17 18 18 14 11 8 10 12 13 11 12 17 18 20 20 20
11 11 12 13 13 14 15 16 16 18 19 19 19 19 13 13 13 17 22 23 20 22 21 20 19 16 18 17 15 14 14 15 17 15 14 9 10 8 8 9 12 17 19 19 18 17 17
11 11 12 12 13 14 15 16 16 18 18 19 19 18 12 10 14 21 22 21 18 17 17 18 18 18 16 16 11 13 10 11 12 16 14 12 7 7 9 9 13 16 19 17 16 15 15
10 11 11 12 13 13 14 16 16 17 18 19 19 19 15 11 14 22 21 18 13 14 13 17 17 18 16 7 8 10 11 14 13 16 12 11 7 8 7 8 9 13 18 17 17 12 13
10 11 11 12 12 13 14 15 16 17 18 19 19 19 18 14 17 18 17 16 17 15 12 15 15 15 13 8 10 10 11 15 13 12 9 7 7 7 9 7 10 14 18 17 12 12 11
10 10 11 11 12 13 14 15 16 17 17 18 18 19 18 14 16 16 17 18 18 14 11 14 13 11 7 9 9 9 8 10 12 13 11 9 8 10 9 9 9 15 17 13 11 12 10
9 10 10 11 11 12 13 14 15 16 17 18 19 19 19 14 15 17 16 17 18 18 14 14 14 14 11 9 9 9 9 9 7 10 15 13 11 10 10 10 12 15 14 11 11 10 10

GFSGBSN_925_temp_006.txt.gz
Temp
11 11 11 10 11 11 11 10 10 11 11 13 12 13 14 13 12 11 10 10 9 9 10 14 17 18 15 17 20 27 27 26 25 23 23 23 24 24 25 24 26 24 26 26 25 25 25
11 11 11 11 10 12 12 11 12 13 14 14 14 14 14 13 14 13 12 10 9 11 13 16 17 17 14 19 26 27 27 26 25 25 25 24 25 25 25 24 26 25 25 25 26 26 27
11 11 11 11 11 12 13 13 14 15 15 15 15 14 14 14 14 14 13 11 13 13 15 17 17 15 14 20 27 27 27 28 28 26 25 27 27 27 27 26 25 24 24 25 26 26 27
11 11 11 12 11 12 13 14 15 15 15 15 15 15 14 14 14 15 16 15 15 15 17 17 16 13 18 26 27 27 28 29 29 29 29 30 29 28 27 27 26 26 23 23 25 24 26
12 12 12 12 12 13 14 15 15 16 16 15 15 15 15 15 15 16 16 16 17 17 17 16 14 14 21 26 27 28 28 28 29 30 30 30 29 26 24 22 22 21 22 23 25 24 25
12 11 12 13 12 13 14 15 15 16 16 16 15 16 16 16 16 17 17 17 17 17 16 14 15 18 22 24 27 28 29 29 28 27 26 26 21 22 20 21 22 22 23 22 23 24 25
11 11 12 13 13 13 14 15 16 16 16 16 16 17 17 17 17 18 18 17 15 16 15 20 22 22 24 27 28 28 28 28 27 26 25 23 22 22 24 24 25 25 24 22 24 25 26
11 12 13 13 14 13 14 15 16 16 17 17 17 17 17 18 18 19 18 17 21 22 20 20 21 22 25 27 26 26 28 26 26 25 24 21 22 25 25 24 24 24 23 23 24 25 24
11 12 13 13 14 13 14 16 16 17 17 17 17 17 18 18 19 19 18 20 23 21 20 25 25 26 26 27 25 26 27 25 25 24 23 21 24 26 24 22 23 21 22 23 24 24 22
11 12 13 13 14 13 14 16 16 17 18 18 18 18 19 18 17 19 19 23 23 22 17 23 25 26 27 26 25 27 27 26 25 22 22 24 24 24 23 23 23 22 23 23 23 22 21
11 12 13 13 13 14 15 16 17 18 18 18 19 18 18 18 19 18 22 22 22 21 15 23 25 27 27 26 25 26 28 26 25 25 22 22 22 22 22 23 24 23 24 24 24 21 21
11 13 13 13 14 14 15 16 17 18 19 19 19 19 18 18 19 22 22 23 22 15 18 24 24 25 25 25 25 25 26 24 25 23 22 23 24 23 23 23 24 24 23 20 20 19 17
12 13 13 13 14 13 15 16 17 18 19 19 19 19 19 19 20 22 23 19 15 15 23 23 23 24 24 24 25 24 21 20 20 21 21 22 22 23 23 22 22 21 19 16 17 14 16
12 13 13 14 14 14 15 16 17 18 19 19 20 20 20 21 21 23 22 16 19 21 22 24 24 23 24 24 22 22 22 20 20 21 20 20 18 21 22 22 22 22 19 15 18 15 17
12 13 13 13 14 14 15 16 17 18 19 19 20 20 20 22 22 23 15 13 17 20 24 24 24 22 23 24 22 21 20 20 21 21 20 19 20 22 23 23 22 22 18 20 16 13 14
12 13 14 13 13 14 15 16 17 18 19 19 20 20 21 22 23 22 14 15 20 23 24 24 22 22 22 23 23 21 21 21 21 20 20 21 20 22 23 22 22 21 21 18 14 16 15
12 13 13 13 13 14 15 16 17 18 19 19 19 16 21 22 23 14 14 16 23 23 23 24 23 23 22 21 22 21 20 20 19 21 19 20 19 19 21 20 20 19 19 18 16 13 13
12 13 13 13 13 14 14 16 17 18 18 18 16 15 19 20 16 13 16 21 23 23 24 23 23 23 23 22 20 18 19 19 18 19 20 19 15 13 20 22 22 22 20 17 12 17 10
13 13 12 13 13 14 14 15 17 17 18 18 14 15 19 20 13 9 18 22 23 23 23 24 23 22 22 21 18 19 18 18 17 17 18 18 15 13 17 18 19 21 21 17 14 11 14
12 12 12 13 14 14 14 15 16 17 18 19 14 13 14 13 13 17 20 22 22 22 22 22 23 22 21 20 18 18 18 19 18 18 15 16 15 15 14 17 17 20 20 17 15 11 13
12 12 12 13 14 14 14 15 16 17 18 18 15 15 15 11 13 18 20 21 21 21 23 23 22 22 20 20 19 17 18 18 19 17 17 15 15 15 17 17 18 19 18 17 18 16 14
12 12 12 13 14 14 15 16 17 18 19 18 16 15 14 14 17 18 17 19 20 21 22 22 22 20 19 17 18 17 17 17 18 18 16 12 12 12 16 15 14 16 16 16 16 18 17
11 12 12 13 14 14 14 16 17 18 19 18 19 17 15 12 15 16 15 20 19 20 21 21 17 15 14 17 15 15 15 15 17 16 12 10 8 9 12 10 11 12 17 18 18 16 18
11 12 12 12 13 14 14 16 17 18 20 19 18 15 13 12 12 15 20 20 20 20 18 18 17 16 18 15 15 14 13 14 14 13 12 8 9 6 8 8 11 16 16 17 14 14 13
11 12 12 12 13 13 14 15 17 18 19 19 18 16 12 9 11 19 18 16 16 15 15 16 16 16 14 13 10 12 9 11 11 12 12 10 6 7 8 8 12 15 17 16 16 13 13
11 12 12 12 13 14 14 15 16 18 19 19 18 18 13 11 13 18 15 16 12 13 12 15 16 15 11 5 7 9 10 13 13 14 11 9 6 8 7 8 9 13 17 16 16 12 12
11 11 11 12 12 14 14 15 17 18 19 20 18 18 17 12 15 17 15 15 13 12 11 14 16 14 11 4 7 9 11 13 12 11 8 6 5 7 6 5 8 12 14 16 12 12 11
11 11 11 12 12 13 14 15 16 18 18 19 17 18 18 12 14 14 15 16 14 13 11 13 12 10 6 8 6 8 8 9 10 12 10 9 7 6 5 5 10 13 15 13 12 11 10
10 10 11 11 12 13 14 15 16 17 18 19 18 18 18 13 14 16 16 16 17 16 12 12 13 12 9 8 8 10 8 8 6 10 12 13 10 9 10 10 12 13 14 13 10 10 9

GFSGBSN_925_temp_009.txt.gz
Temp
11 11 11 11 11 11 11 12 11 11 11 10 11 11 12 10 10 10 10 9 9 9 8 13 14 15 13 15 19 26 26 26 25 23 22 21 22 22 23 23 23 25 25 25 23 24 24
12 11 11 11 11 11 11 13 12 12 11 12 13 11 13 11 11 11 9 9 9 8 12 15 14 15 13 19 26 25 25 25 25 23 22 22 23 23 24 24 23 23 24 24 25 24 24
12 11 11 12 11 12 12 13 13 13 13 14 13 13 12 13 13 11 10 9 9 12 14 14 15 14 14 20 26 26 26 26 26 25 22 24 24 25 24 23 24 23 24 24 25 25 25
12 11 11 12 12 12 13 13 13 14 14 15 14 14 14 14 14 12 12 10 12 14 15 15 14 13 18 25 25 26 26 27 26 25 25 28 26 24 26 24 23 24 21 22 24 25 23
12 11 12 12 12 13 13 14 14 15 15 15 15 15 14 14 14 14 14 12 15 14 14 14 13 13 20 25 26 27 27 27 28 27 26 28 26 23 22 21 20 19 22 23 24 23 24
12 11 12 12 12 13 13 14 14 15 15 15 15 15 15 15 15 15 14 14 14 13 13 12 13 16 21 25 26 27 27 28 27 26 25 23 20 21 19 20 21 23 23 22 23 23 23
12 11 12 11 12 13 13 14 15 15 15 15 15 15 15 16 16 15 15 14 13 14 12 19 21 21 22 25 27 27 27 27 25 22 22 22 21 22 23 23 24 24 23 22 21 24 19
12 11 12 12 12 13 13 14 15 15 15 16 16 15 16 16 16 15 15 15 20 20 19 18 19 20 22 25 25 26 27 26 24 23 24 21 22 24 22 22 24 23 22 22 23 21 19
12 11 12 12 13 13 13 15 15 15 16 16 16 16 17 17 16 15 17 19 21 21 19 22 21 22 25 25 25 25 26 25 25 24 23 21 24 24 23 21 22 21 22 23 22 20 19
12 11 12 12 13 13 13 15 15 15 16 17 17 17 17 18 15 18 18 21 21 21 16 21 24 26 26 25 25 26 26 25 23 21 21 22 21 22 22 22 21 22 23 23 21 19 19
12 12 12 12 13 13 14 15 15 16 17 17 17 17 18 17 17 16 21 21 21 20 15 22 24 26 25 25 24 25 25 25 23 23 22 22 22 21 22 23 23 22 23 22 22 19 19
12 12 12 12 13 13 14 15 16 16 17 18 17 18 18 18 18 21 21 21 21 14 17 23 24 24 24 24 24 24 23 21 23 21 20 22 22 23 23 23 23 23 21 18 17 17 16
12 11 12 12 13 13 14 15 16 17 17 18 17 18 19 18 19 21 22 18 14 14 22 22 22 23 23 23 22 21 20 19 20 20 20 21 21 21 22 23 22 20 18 15 17 14 15
12 11 12 12 13 13 14 15 16 17 18 18 18 19 19 20 20 21 22 16 18 20 21 23 23 22 23 22 21 21 20 19 19 20 18 19 18 21 21 22 22 20 19 15 18 14 17
12 12 12 12 13 13 14 15 17 17 18 18 18 19 19 21 21 22 15 12 16 18 22 22 22 22 23 22 21 20 19 19 20 20 20 19 20 21 22 22 21 21 17 18 14 12 14
12 11 12 12 13 13 14 15 16 17 18 18 19 18 20 21 22 21 13 14 18 20 23 22 21 21 21 22 21 20 20 20 20 18 19 20 19 21 22 22 21 21 19 17 13 16 15
12 11 12 12 13 13 14 15 16 17 18 18 19 15 19 20 22 13 13 15 19 22 23 24 21 21 22 21 20 19 19 19 18 19 18 19 18 19 20 19 20 19 19 16 14 12 13
11 11 12 12 13 14 14 15 16 17 18 18 15 15 17 20 15 10 15 18 20 23 22 22 22 23 21 20 18 18 18 18 17 19 19 18 14 13 19 19 20 21 19 16 12 16 9
11 11 12 12 13 14 14 15 16 17 17 18 13 14 17 20 12 8 16 19 21 23 22 23 22 22 20 18 18 18 18 18 17 17 18 18 14 13 16 17 18 20 19 15 12 10 13
11 11 12 13 13 14 14 15 16 17 18 20 12 13 13 12 12 16 19 20 21 21 22 22 21 20 19 18 16 17 17 18 18 17 14 15 14 15 14 17 16 19 19 16 15 11 13
11 11 12 13 13 14 14 15 16 17 18 19 13 13 14 10 12 16 18 19 21 21 22 21 22 21 19 18 18 16 17 18 18 16 15 14 15 15 15 14 17 18 18 16 16 15 14
11 12 13 12 13 14 15 15 16 17 17 18 14 13 12 13 15 16 16 19 20 21 21 21 19 19 19 16 17 16 16 17 17 15 14 11 11 11 15 13 13 16 16 15 15 16 15
11 12 12 12 13 14 15 15 16 17 17 16 15 15 14 9 13 14 13 19 19 19 18 18 17 16 15 16 15 13 14 14 15 15 11 9 7 9 12 9 11 12 14 16 17 16 14
12 12 12 13 13 14 14 15 16 17 19 20 17 14 11 10 11 14 17 19 18 19 18 17 16 15 17 13 14 13 12 12 12 11 11 8 7 5 8 7 12 15 14 15 16 14 13
12 12 12 13 13 14 14 15 17 18 20 19 19 15 12 8 12 16 16 15 15 14 14 15 15 14 13 12 10 13 9 11 10 11 10 9 5 7 8 8 12 16 15 14 15 14 12
12 11 12 12 13 13 14 15 16 18 20 20 18 17 12 12 12 16 15 16 11 12 12 15 14 13 10 5 7 10 12 14 12 13 10 8 5 7 6 8 10 13 15 15 15 12 11
11 11 12 12 13 13 14 15 16 18 19 19 17 17 16 11 14 15 14 15 12 11 10 14 15 14 11 4 5 8 11 12 12 10 8 6 4 6 3 5 9 11 14 15 13 13 10
11 11 12 12 13 13 14 15 17 19 20 19 16 17 17 11 13 14 16 13 13 12 11 13 12 10 6 8 6 6 7 9 10 11 10 9 8 5 6 5 11 12 13 13 12 11 10
11 11 11 12 12 13 14 15 16 17 18 19 17 17 18 12 13 14 15 15 16 15 11 11 13 11 9 7 5 6 8 7 6 10 11 11 10 9 10 10 12 12 13 13 10 10 9

GFSGBSN_925_temp_015.txt.gz
Temp
13 13 12 12 11 11 11 11 11 11 10 9 9 9 9 9 9 9 9 9 9 9 8 8 8 8 10 13 17 23 24 24 22 21 22 21 21 22 23 22 22 23 24 23 23 24 24
13 13 12 12 11 11 11 11 11 11 11 9 10 9 12 9 8 9 8 8 8 9 8 8 8 8 10 17 23 23 22 23 22 21 20 21 22 22 23 23 24 24 24 23 22 23 23
13 13 12 12 12 12 11 11 12 11 12 11 12 9 13 10 9 9 8 9 9 8 8 7 7 8 10 18 23 23 23 23 23 22 20 21 22 23 22 23 23 23 24 23 23 24 24
13 13 13 12 12 12 11 11 12 12 12 12 12 10 13 11 10 9 9 9 8 8 7 8 8 9 15 23 23 23 24 22 22 22 22 23 22 22 23 23 22 23 22 24 24 24 22
13 13 13 12 12 12 12 12 12 12 12 13 12 12 13 13 10 9 8 8 8 8 8 8 9 10 18 24 23 25 25 25 22 20 21 22 22 22 22 23 23 22 24 23 24 21 23
12 13 13 13 12 12 12 12 12 12 12 13 13 14 14 13 9 9 8 7 8 8 9 8 10 13 19 23 24 25 26 25 23 20 21 22 21 22 22 24 24 23 23 23 24 21 21
11 12 13 13 12 12 12 12 12 13 13 13 14 14 13 11 9 9 9 9 11 12 9 17 18 18 20 23 24 25 25 25 24 23 23 21 23 24 23 23 22 22 23 23 21 19 19
11 12 12 12 12 12 12 12 12 13 13 13 14 13 13 10 9 9 10 10 16 19 18 15 16 17 19 22 23 24 25 24 24 23 22 23 22 22 21 21 22 22 21 20 19 19 19
10 10 12 12 12 12 12 12 13 13 13 13 14 13 13 10 9 8 9 14 18 18 18 20 17 19 22 21 23 24 25 23 23 22 21 22 22 21 22 21 22 21 22 20 21 19 19
9 11 11 12 12 12 13 12 12 13 13 12 14 14 12 9 10 12 12 19 19 17 18 21 22 23 22 22 23 23 23 23 22 21 20 21 21 21 21 21 21 22 21 20 19 21 22
9 10 10 11 12 12 12 13 13 13 13 12 14 13 13 13 12 13 18 18 18 18 17 21 23 25 22 23 23 23 22 23 21 21 21 21 21 21 21 21 21 21 20 21 20 20 21
8 10 10 11 12 12 12 13 13 13 12 13 14 13 11 10 13 18 18 18 18 16 17 21 22 23 22 21 21 21 22 21 20 20 20 20 20 21 21 20 20 19 20 19 18 20 21
8 9 10 10 12 12 12 12 13 13 12 13 13 14 13 13 15 16 17 16 16 16 20 21 22 22 21 20 20 20 19 19 21 21 20 20 20 20 20 21 20 20 21 20 20 20 20
8 8 9 10 11 12 12 12 13 13 12 13 12 13 13 15 17 16 17 17 18 18 18 21 21 21 21 21 20 19 19 20 19 19 19 20 21 21 20 21 21 19 21 20 19 19 20
7 8 8 9 11 12 12 12 13 12 12 12 10 9 11 16 17 16 15 13 17 17 20 20 21 21 20 21 20 19 18 19 18 18 21 20 20 20 20 20 21 19 20 18 16 13 17
7 7 8 9 10 11 12 12 12 12 12 11 12 11 14 17 17 16 14 15 18 18 20 20 20 20 20 20 20 19 19 18 19 18 18 19 20 19 20 20 19 20 18 19 17 18 18
7 7 8 9 10 12 12 12 12 12 12 11 13 13 15 16 16 14 15 15 18 18 19 21 20 20 19 20 19 19 19 18 18 18 18 18 19 19 19 19 20 19 19 16 17 15 18
6 7 8 9 10 11 12 12 12 11 11 9 11 14 14 16 14 11 15 16 18 19 20 20 20 20 19 19 18 18 18 18 16 17 19 17 16 18 19 19 18 19 19 17 18 17 13
6 7 7 9 10 11 12 13 12 11 11 11 12 13 14 16 13 10 14 18 19 20 20 21 20 19 18 17 18 17 17 16 16 17 17 17 16 17 19 19 19 19 17 15 14 13 14
6 7 7 8 11 11 12 12 13 12 13 14 12 14 13 11 11 15 17 18 20 19 20 19 18 18 17 17 16 16 16 16 16 15 12 15 15 17 19 18 17 18 17 16 17 16 15
6 6 7 9 11 11 12 12 13 13 13 12 11 13 14 12 12 15 17 18 19 20 20 19 19 19 18 17 17 16 16 16 15 14 14 16 17 15 14 14 15 17 17 16 17 17 18
5 6 8 10 11 12 12 13 13 13 13 11 12 12 10 12 13 15 15 17 18 19 19 20 19 17 18 16 18 16 16 16 17 14 14 12 14 13 14 13 13 15 16 16 15 15 16
7 7 8 11 11 12 12 12 12 13 12 12 12 13 13 8 12 14 13 16 18 18 17 16 17 16 17 16 14 13 12 12 14 15 12 12 10 13 15 11 12 15 15 16 15 15 17
6 8 9 11 11 12 12 12 13 14 14 16 15 13 11 9 10 13 14 17 17 17 17 15 15 16 13 12 12 14 12 12 12 11 11 9 10 9 13 10 16 18 15 15 16 15 15
7 9 10 11 11 12 12 13 13 14 15 15 16 15 11 8 11 14 15 14 14 13 14 14 13 12 12 12 12 14 12 12 10 10 10 10 9 9 13 13 14 18 14 14 15 18 16
9 10 11 11 11 12 13 13 14 15 16 15 16 17 12 10 11 15 14 14 12 12 12 12 12 11 10 8 10 13 15 15 15 13 10 9 7 12 9 14 15 16 15 14 15 16 15
10 10 11 11 12 13 13 14 14 15 15 15 16 17 15 12 12 13 14 14 12 12 11 12 13 13 11 8 10 12 14 12 15 12 9 9 8 11 7 13 13 13 14 14 16 17 12
10 10 11 11 12 13 13 14 15 16 16 16 15 16 16 11 12 13 13 12 12 12 13 12 13 11 9 11 11 11 11 11 12 12 11 12 11 10 7 10 14 12 14 15 15 13 12
10 10 11 11 12 13 14 15 16 16 16 16 15 14 15 12 12 13 13 13 14 14 12 10 14 12 11 10 7 7 9 7 8 14 10 13 13 13 12 13 13 12 13 13 12 13 13

GFSGBSN_925_temp_018.txt.gz
Temp
13 13 13 13 12 12 12 11 11 11 11 11 12 11 9 9 9 9 9 8 9 8 8 8 8 8 11 18 23 23 24 23 21 21 24 26 26 26 26 27 27 26 28 28 28 27 29
13 13 13 13 13 12 12 12 11 11 11 11 12 13 10 9 9 8 8 8 9 8 8 8 7 7 13 21 23 22 23 21 21 22 24 25 27 27 27 27 27 27 27 28 27 28 27
12 13 13 13 13 12 12 12 12 11 11 11 12 13 10 8 9 8 8 8 9 8 8 8 7 8 15 23 23 21 21 22 22 24 26 25 26 26 27 27 26 27 27 27 27 28 27
11 12 13 13 13 13 12 12 12 11 11 11 12 13 10 9 9 10 9 8 9 8 7 7 7 9 20 21 22 21 22 22 22 22 24 24 24 25 25 26 26 27 28 28 27 28 26
10 11 12 13 13 13 13 13 12 12 11 12 12 13 12 10 10 9 8 8 8 8 7 8 9 12 23 22 23 25 24 25 22 22 22 23 24 25 25 26 26 27 28 27 26 26 27
9 10 11 12 13 13 13 13 13 12 12 12 13 13 13 11 9 8 8 8 7 7 8 9 11 16 22 26 25 25 24 23 25 23 23 24 25 26 27 27 26 27 27 28 27 26 28
9 10 11 12 12 13 13 13 13 12 12 12 13 13 12 10 10 8 9 10 13 15 12 22 23 22 25 25 24 26 26 25 26 25 26 25 26 27 27 28 27 28 28 27 26 24 26
9 9 10 11 12 13 13 13 13 12 12 12 13 13 12 10 9 8 8 15 20 19 22 21 21 21 22 22 25 27 26 27 27 27 27 25 26 26 26 26 27 27 27 26 24 23 25
8 9 9 10 12 12 13 13 13 12 13 12 12 13 11 9 8 8 11 15 17 18 21 23 22 23 25 24 26 27 28 27 26 26 26 27 25 24 26 26 27 26 27 25 26 24 25
8 8 9 10 10 12 12 13 13 12 12 12 12 12 10 9 10 12 14 17 16 16 23 24 24 25 24 26 26 25 26 27 25 26 25 25 24 25 26 25 25 26 25 25 24 26 26
7 8 8 9 10 11 12 12 12 12 12 12 12 12 9 13 13 15 18 16 17 18 21 24 25 25 25 26 27 26 24 27 26 25 25 24 25 25 26 25 24 25 24 26 26 26 26
7 8 8 9 10 10 11 12 12 12 12 12 12 12 9 9 10 15 16 16 18 21 21 24 25 25 25 25 25 26 26 26 25 25 25 25 24 25 25 24 24 24 25 25 25 25 24
7 7 8 8 9 10 11 12 12 12 12 12 12 12 9 10 17 14 16 19 21 21 23 24 24 25 26 25 24 25 25 25 26 24 25 25 25 24 24 25 24 25 26 24 23 24 24
6 7 7 8 9 10 10 11 12 12 12 12 12 11 9 11 13 15 16 22 21 23 23 24 24 25 25 25 24 24 24 25 24 25 26 25 23 24 24 25 26 25 26 24 22 23 24
6 7 7 7 9 9 10 11 11 11 11 11 11 8 8 12 14 13 20 20 22 23 24 24 24 24 24 24 25 24 24 25 24 24 26 25 24 24 23 24 24 23 24 24 22 19 21
6 7 7 7 8 9 9 11 11 11 11 11 9 9 14 14 15 15 19 21 23 23 23 24 24 25 24 24 24 24 24 23 23 22 23 24 23 23 23 24 23 24 23 23 23 21 21
6 7 7 7 7 8 9 10 11 11 11 12 13 17 15 15 15 19 20 22 23 23 23 24 24 24 25 24 25 24 24 22 22 22 23 24 24 22 22 23 24 23 23 22 23 21 22
5 7 7 7 7 8 9 10 11 11 11 10 16 18 13 14 19 20 22 22 21 23 22 23 24 24 24 24 24 24 24 23 21 23 23 22 23 22 23 22 22 23 24 24 23 21 19
5 6 6 7 7 8 8 10 11 10 10 10 17 18 13 14 19 18 20 22 22 23 23 23 24 24 23 23 22 22 22 19 19 21 23 22 22 22 22 22 22 23 23 23 21 20 20
5 6 6 6 7 7 9 10 10 11 12 15 19 17 17 18 20 21 21 22 22 21 23 23 22 22 22 22 21 21 21 19 18 20 13 19 22 23 23 23 23 22 22 22 23 21 22
5 5 6 6 7 7 9 10 11 11 12 14 18 20 21 17 18 21 22 23 23 22 22 23 22 24 24 21 21 21 21 19 19 14 18 21 21 21 20 20 20 21 22 22 22 23 21
5 5 6 6 7 7 9 10 11 11 11 15 19 19 18 20 20 21 19 22 23 22 23 23 23 22 23 22 23 21 22 21 22 19 20 18 20 18 18 18 19 19 21 22 23 23 22
5 6 5 6 6 7 9 10 11 11 11 17 16 16 21 13 19 21 20 22 23 23 19 21 23 22 21 21 20 20 19 20 21 20 18 18 16 18 20 16 17 16 19 22 22 22 22
6 5 6 6 7 7 9 11 11 11 13 19 17 19 20 17 18 20 21 22 22 23 21 19 21 22 17 18 19 19 19 18 18 16 17 14 16 15 17 14 17 23 20 20 22 22 23
6 5 6 7 7 8 10 11 11 12 14 16 15 19 19 13 18 19 20 22 20 19 18 19 17 17 18 18 19 18 17 16 15 15 16 16 16 14 16 19 20 23 20 19 19 22 23
5 6 6 6 8 10 11 11 12 12 13 15 14 16 20 16 17 20 21 20 19 19 17 15 15 15 16 17 17 18 19 20 18 17 15 15 14 18 14 17 17 21 18 18 19 20 20
6 7 7 8 9 10 11 12 12 13 13 14 15 17 20 20 18 19 20 19 20 20 19 16 15 15 15 16 16 18 20 18 19 16 13 14 13 15 16 16 19 20 18 18 19 20 20
7 8 9 9 10 11 11 12 12 13 14 14 13 16 18 19 17 17 18 18 17 20 19 17 17 16 15 16 17 17 16 17 18 18 16 17 16 14 13 15 16 18 18 18 19 19 18
8 9 10 11 11 11 12 12 12 14 15 15 15 15 16 18 16 14 13 13 16 20 19 17 20 18 19 18 14 14 12 10 15 18 16 17 18 19 18 20 19 18 19 19 17 17 18

GFSGBSN_925_temp_021.txt.gz
Temp
11 12 13 13 13 13 13 12 12 12 11 11 11 11 10 9 10 10 9 10 9 9 9 8 8 8 11 20 24 24 25 23 21 21 26 28 27 28 28 29 29 28 30 30 30 30 30
10 11 12 13 13 13 13 13 12 12 11 11 11 11 10 11 9 10 9 9 8 8 9 8 8 10 14 21 26 24 22 22 24 25 26 28 28 29 29 29 29 30 30 30 30 30 29
9 10 11 12 13 13 13 13 12 12 12 12 12 11 10 11 9 10 9 8 9 9 9 8 8 11 17 23 26 25 24 25 25 26 28 28 28 28 29 28 29 29 28 29 29 29 29
9 10 10 11 12 13 13 13 13 12 12 12 12 11 11 12 9 11 10 8 9 9 8 8 8 13 20 25 25 25 25 25 25 25 26 27 27 27 28 28 28 28 28 28 29 30 29
9 9 10 11 11 12 13 13 13 12 12 12 12 12 12 12 9 11 8 8 9 9 9 10 12 15 24 24 26 27 26 27 26 25 26 25 26 27 27 26 27 27 27 28 28 30 29
8 9 9 10 11 12 12 13 13 13 12 12 12 12 12 12 9 8 8 9 11 10 11 12 14 18 23 27 28 27 27 27 27 26 25 26 26 26 27 28 26 27 28 29 28 29 29
8 8 9 9 10 11 12 12 13 13 12 12 12 12 13 12 9 9 9 12 16 18 17 23 25 25 27 27 27 28 27 27 27 27 27 26 25 25 28 28 29 29 29 29 29 29 29
7 8 8 9 9 10 12 12 13 12 12 12 12 12 13 11 9 8 9 19 22 21 23 23 24 25 25 25 27 29 28 28 27 26 27 26 26 28 29 29 28 29 29 28 28 28 28
7 8 8 8 9 10 11 12 12 12 12 12 12 12 12 10 9 8 14 18 20 19 22 25 26 26 27 26 28 29 30 29 27 26 27 26 26 27 28 28 28 29 28 28 28 28 29
7 7 8 8 9 9 10 11 12 12 12 12 12 12 11 9 10 15 17 18 18 18 23 25 25 27 27 28 27 29 29 29 27 27 27 22 27 27 28 27 28 27 28 28 28 27 27
6 7 8 8 8 9 10 10 11 12 12 12 11 11 11 13 15 18 20 19 19 19 21 27 27 28 28 27 28 27 28 29 27 27 26 27 27 28 27 27 28 25 28 28 28 28 28
6 7 7 8 8 8 9 10 11 12 12 12 11 11 10 9 11 17 18 18 19 20 22 25 27 26 26 27 28 29 28 29 29 27 27 21 28 28 28 27 27 27 27 27 28 28 26
6 6 7 7 8 8 9 10 10 11 11 11 11 11 9 11 18 16 17 20 21 21 26 25 26 27 27 26 27 27 27 27 27 25 25 27 27 27 27 27 27 28 27 25 25 25 25
5 6 7 7 8 8 8 9 10 11 11 11 11 10 9 12 15 15 18 21 20 25 26 27 27 27 26 27 27 27 27 27 28 27 26 25 25 27 27 28 27 27 28 25 24 24 26
4 5 6 7 7 8 8 9 10 10 11 10 9 8 10 11 12 13 20 19 22 26 27 26 26 26 26 26 26 27 26 27 28 28 26 27 25 27 26 27 28 27 25 27 25 24 24
3 4 5 6 7 7 8 9 9 10 10 10 11 10 14 14 12 15 20 20 24 26 27 27 25 26 25 26 25 26 26 28 27 26 27 27 25 26 25 26 26 26 27 25 25 23 23
4 4 5 6 7 8 8 8 8 9 10 11 14 16 20 15 14 18 20 22 25 26 26 26 26 26 27 26 26 26 27 26 26 26 27 28 26 25 25 25 27 25 25 25 26 25 23
4 4 4 6 7 8 8 8 8 9 11 10 15 17 16 15 19 20 21 24 25 26 25 26 26 27 26 27 26 26 26 27 27 27 26 27 26 24 25 26 26 26 26 26 23 24 23
4 4 4 6 7 7 7 8 8 9 10 12 17 18 15 17 19 19 23 24 25 25 25 25 25 27 27 26 25 26 26 22 23 25 26 25 25 23 24 25 25 25 26 26 26 23 23
3 5 5 6 7 8 8 7 8 9 11 14 19 18 16 17 22 22 22 24 23 25 26 26 26 26 26 25 26 25 25 22 22 24 16 20 25 24 23 25 26 24 25 26 25 23 23
4 4 5 6 7 8 7 7 7 9 11 13 21 21 21 17 21 22 23 24 24 24 25 26 25 26 26 25 25 24 25 22 21 16 21 23 23 25 25 24 24 25 26 25 25 25 24
3 4 5 5 6 7 7 7 7 9 12 12 20 22 22 21 21 22 21 23 25 25 25 24 25 26 27 25 25 25 25 24 24 22 23 23 22 21 21 24 23 23 25 25 26 26 26
4 5 5 5 6 6 7 7 7 9 10 14 18 22 23 19 22 22 23 24 25 26 23 26 26 26 25 25 24 24 25 25 25 23 22 22 20 20 21 21 21 18 21 24 25 26 25
4 5 5 5 6 6 6 6 7 9 10 17 19 21 20 19 22 22 23 24 25 25 24 24 26 25 21 23 23 23 23 22 22 21 23 18 20 19 19 15 16 25 24 24 24 25 26
4 5 5 6 6 6 6 6 7 9 11 15 19 21 22 16 21 23 23 24 25 24 24 23 21 22 22 23 21 20 19 18 19 20 20 21 20 18 17 20 23 24 24 22 22 23 25
5 5 5 5 6 6 6 6 8 10 12 10 16 18 23 20 21 23 23 24 22 22 20 18 20 20 20 21 20 21 21 22 20 20 19 18 18 19 18 17 16 22 22 21 22 21 23
5 5 5 6 5 6 7 7 9 11 11 9 17 18 23 22 23 23 23 23 24 23 22 18 18 18 19 19 17 20 21 22 21 19 14 16 16 17 18 17 20 23 22 21 20 20 21
5 6 6 5 8 8 6 8 10 12 11 9 16 15 23 23 21 21 23 23 23 24 20 20 19 19 19 18 18 20 19 20 21 22 19 19 18 16 17 15 16 22 21 20 21 21 22
5 5 6 6 7 7 8 10 11 12 12 12 16 16 19 22 19 18 17 17 20 24 24 20 24 21 21 21 18 19 15 12 20 19 21 20 21 21 21 21 21 21 21 22 21 20 20

GFSGBSN_925_temp_024.txt.gz
Temp
10 10 11 12 13 13 13 13 13 12 12 12 11 12 11 12 12 12 9 9 9 9 9 9 11 14 12 20 23 25 25 22 22 21 24 27 27 28 27 29 30 29 30 31 30 29 24
9 9 10 11 12 13 13 13 13 13 12 12 11 12 12 11 11 11 11 8 9 8 9 10 12 12 13 21 27 25 23 22 23 24 26 28 28 29 29 29 29 30 29 30 30 28 30
8 9 9 10 11 12 13 13 13 13 12 12 12 12 12 11 11 11 11 9 10 9 9 12 13 10 17 22 26 26 24 25 26 26 28 28 29 28 29 28 30 29 28 29 30 30 29
8 9 9 9 10 11 12 13 13 13 12 12 12 12 12 12 12 13 12 10 11 10 10 14 13 12 19 25 26 26 26 27 27 27 26 28 28 28 27 28 28 28 28 26 29 29 28
8 8 9 9 10 11 11 12 13 13 13 12 12 12 12 12 13 13 13 12 11 10 12 13 12 16 23 25 26 27 27 28 28 27 26 27 27 26 27 26 27 27 25 26 28 30 29
8 8 8 9 9 10 11 11 12 12 13 12 12 12 12 12 13 13 12 12 11 11 13 12 16 19 23 27 28 28 28 28 27 27 26 26 26 26 26 26 24 24 26 27 28 29 29
8 8 8 8 9 9 10 11 12 12 12 12 12 12 12 12 12 11 11 11 15 16 16 22 25 24 28 28 28 28 28 28 28 26 25 27 25 25 25 26 28 27 27 28 30 30 29
7 7 7 8 8 9 10 11 11 12 12 12 12 12 12 11 10 9 9 17 23 21 21 23 25 26 26 27 27 29 29 27 27 25 24 26 24 26 27 27 28 28 28 28 29 29 29
7 7 7 7 8 9 9 10 11 11 12 12 12 11 11 11 9 9 13 17 21 20 22 26 26 26 27 28 27 29 29 29 26 26 25 24 23 24 27 28 27 28 28 27 28 29 29
6 7 7 7 8 8 9 10 11 11 12 12 12 11 11 12 10 15 16 18 18 19 21 25 26 27 28 28 27 30 30 26 25 26 21 22 26 25 27 27 28 26 27 27 26 27 26
6 6 6 7 7 8 9 9 10 10 11 11 12 11 12 13 13 18 21 21 20 19 20 27 27 29 29 27 28 28 30 28 26 26 25 22 26 27 27 25 27 24 26 27 28 28 25
5 5 6 6 7 8 8 8 9 10 11 11 11 11 11 8 10 16 17 18 20 19 20 26 28 27 27 27 28 29 28 29 27 25 27 26 27 26 25 27 27 27 26 28 28 28 21
5 5 6 6 7 7 8 8 9 9 10 11 11 11 10 12 17 18 17 19 19 20 26 26 26 27 27 26 27 28 27 27 26 25 25 26 26 28 27 27 28 28 27 25 21 20 23
4 5 5 6 6 7 8 8 9 9 10 11 11 10 10 11 14 15 17 18 19 23 25 28 27 27 26 27 27 27 27 26 28 27 26 25 23 28 28 28 22 23 27 24 18 16 24
4 4 5 6 6 7 7 8 9 9 10 10 10 8 9 11 14 14 17 17 21 25 27 27 27 26 26 27 27 27 27 27 28 28 23 21 23 24 28 28 28 27 26 28 24 24 23
4 4 4 6 6 6 7 7 8 9 9 9 10 11 12 12 13 14 16 19 22 26 28 28 26 27 26 27 26 26 26 28 28 28 24 17 16 22 27 27 27 26 28 25 25 22 22
4 4 4 5 4 6 7 7 8 9 9 9 13 14 17 13 12 16 17 20 23 26 28 27 27 27 27 27 27 26 27 28 28 28 27 26 23 26 26 26 26 26 25 26 26 25 22
3 3 4 4 4 5 7 7 8 8 9 9 14 15 17 14 16 18 19 22 23 25 27 26 27 28 27 28 27 27 27 28 29 28 26 27 26 23 26 28 28 27 26 26 22 23 23
3 3 4 4 4 5 6 7 8 8 8 10 15 17 15 16 17 17 20 22 24 25 26 26 26 27 28 27 26 27 27 24 25 26 25 26 25 22 24 26 27 26 26 27 26 23 22
3 3 4 4 4 5 6 7 7 8 8 11 17 15 14 15 20 20 20 22 23 25 26 27 26 27 27 26 27 26 26 23 24 25 17 23 25 24 22 25 26 25 26 27 26 20 21
3 3 4 4 4 4 6 7 7 8 8 9 17 18 17 15 17 20 22 23 23 24 26 27 26 26 26 25 26 25 26 23 23 17 22 24 23 24 25 26 26 25 26 26 26 25 22
3 3 4 4 4 4 6 7 7 7 7 9 16 19 20 20 19 20 20 22 24 25 25 25 25 26 26 25 26 25 26 24 23 22 23 24 22 22 21 24 25 24 25 25 26 26 26
3 3 3 3 5 5 6 7 7 7 7 10 15 19 20 18 19 20 21 23 24 25 26 27 26 26 26 26 26 25 25 26 26 23 23 23 20 19 20 21 21 18 21 23 25 26 26
3 3 4 4 5 5 6 7 7 7 7 12 15 19 18 18 20 21 22 23 24 25 25 26 27 26 24 25 24 24 24 24 24 23 25 19 20 19 18 15 17 23 26 25 25 25 26
4 3 4 4 5 5 6 6 7 6 7 9 15 14 16 14 21 22 23 24 25 25 25 25 23 24 24 24 21 19 19 18 20 22 22 22 19 17 16 19 22 23 25 24 23 23 24
4 4 5 5 5 6 6 6 7 6 5 8 10 10 14 17 20 23 23 24 23 22 21 19 22 23 24 22 20 20 20 22 21 20 21 20 18 18 17 17 17 22 23 23 23 20 23
4 4 5 5 5 6 6 6 6 6 6 6 10 10 13 17 22 23 23 23 24 22 21 20 19 19 20 17 15 20 21 23 20 19 14 16 16 15 17 16 18 23 23 22 20 19 21
4 5 5 5 5 6 6 6 6 7 7 6 9 9 11 15 23 24 25 24 23 23 19 20 20 20 20 18 17 20 18 20 21 22 18 17 17 15 17 14 15 23 22 19 20 21 21
5 5 5 5 5 6 6 6 8 7 7 7 9 11 10 15 19 18 18 19 22 24 21 20 23 21 21 21 18 19 14 13 18 19 23 20 21 20 19 18 22 23 22 22 21 20 20

GFSGBSN_925_temp_030.txt.gz
Temp
9 9 9 10 11 12 12 13 14 14 13 13 13 12 12 12 12 12 13 13 14 14 12 12 10 12 13 13 16 24 23 23 21 21 21 21 22 22 23 23 23 23 24 25 22 21 22
8 9 9 9 9 10 11 12 13 14 14 13 13 13 12 13 12 13 13 13 14 14 12 11 10 12 12 16 23 24 23 23 22 21 22 21 22 23 23 24 23 24 24 23 22 21 22
8 8 9 9 9 9 10 11 12 13 14 13 13 12 12 12 12 12 13 13 14 14 13 10 9 10 11 16 23 23 24 24 24 24 23 24 24 24 24 23 24 24 25 23 21 21 22
8 8 8 9 9 9 9 10 11 12 13 13 12 12 12 12 12 12 13 13 14 13 14 10 10 11 12 22 21 22 23 24 25 24 24 25 25 24 25 24 23 23 22 22 22 22 22
8 8 8 8 8 9 9 9 10 11 12 13 13 12 12 12 12 13 13 13 14 14 13 10 11 11 15 22 22 26 24 24 25 25 24 25 25 23 22 22 20 20 22 24 23 24 24
7 8 8 8 8 8 9 9 9 10 11 12 13 12 12 12 12 12 13 14 14 12 12 10 11 12 17 22 24 26 26 25 25 24 23 24 19 20 19 19 20 22 23 23 23 24 24
7 7 7 8 8 8 8 9 9 10 10 11 12 12 12 12 12 12 13 14 13 13 11 15 17 17 21 23 25 26 26 25 24 23 21 21 19 20 21 21 23 24 23 21 22 23 24
7 7 7 7 8 8 8 8 9 9 10 11 11 12 12 12 12 12 12 11 14 16 14 16 17 18 20 21 22 24 26 24 23 21 21 20 20 22 23 24 22 22 22 21 23 23 23
7 7 7 7 7 7 8 8 8 9 9 10 12 12 11 12 12 12 11 13 16 17 14 18 18 19 20 22 22 23 24 23 23 22 21 20 22 23 24 23 22 22 21 22 23 23 23
7 7 7 7 7 7 8 8 8 8 9 9 11 12 11 12 12 12 11 15 16 15 14 18 20 21 23 24 23 25 25 24 23 21 21 21 22 23 22 22 22 21 23 23 23 22 21
6 7 7 7 7 7 7 8 8 8 8 9 10 11 11 12 11 12 15 16 15 16 13 21 21 25 23 23 24 25 26 24 22 21 21 21 22 23 22 22 23 21 24 24 24 21 21
5 6 6 7 6 7 6 7 7 8 8 9 10 11 10 10 11 14 14 16 16 15 15 21 23 22 23 22 24 25 25 25 23 21 21 22 22 23 22 23 23 24 24 21 19 19 18
5 6 6 6 7 6 6 7 8 8 8 8 10 10 10 11 12 14 15 15 13 15 20 22 22 23 22 22 22 23 24 22 21 21 20 21 22 23 24 23 23 23 20 18 18 15 17
5 5 6 6 6 6 6 6 7 8 8 8 9 9 10 11 13 13 14 15 14 17 19 23 22 22 21 22 22 22 22 21 21 22 19 20 20 22 22 23 22 22 20 17 19 16 18
5 5 6 6 6 7 6 6 6 7 7 8 9 8 9 11 12 12 13 14 14 17 21 22 23 21 21 22 23 21 20 21 21 21 20 19 20 20 20 22 22 22 21 21 16 15 16
5 5 5 5 5 6 6 6 6 6 7 8 8 9 10 11 11 11 13 15 16 19 21 22 21 21 20 21 21 20 20 21 22 22 20 20 20 20 21 23 23 22 23 21 17 19 19
4 5 5 5 5 5 5 6 6 6 7 8 8 10 11 10 11 11 13 14 17 19 19 21 22 22 21 21 21 20 21 23 22 20 20 18 20 20 22 21 21 21 21 21 19 15 17
4 4 5 4 5 5 5 5 6 5 6 7 9 11 10 11 11 10 13 15 15 18 20 19 21 20 21 21 21 21 21 22 21 20 21 19 18 15 20 22 22 21 21 19 14 19 12
4 4 4 4 4 4 4 5 6 6 6 7 9 11 10 12 11 10 13 15 16 18 19 20 21 22 24 21 21 21 21 22 21 21 20 19 18 15 18 20 21 22 22 21 17 13 16
4 4 4 4 4 4 5 5 5 5 5 7 9 10 11 11 14 13 13 14 15 17 17 18 19 20 22 21 21 21 21 21 19 20 17 19 18 17 16 19 20 22 22 21 19 13 15
4 4 4 4 4 4 5 5 5 5 6 6 9 12 12 11 11 13 14 14 14 16 18 19 19 19 19 20 19 20 20 20 20 18 21 19 19 20 19 20 21 22 21 22 20 19 17
4 4 4 3 4 4 4 4 5 4 6 6 10 12 12 11 13 12 14 14 15 17 18 19 19 19 19 21 20 19 19 19 20 20 20 18 17 19 20 19 19 21 20 20 20 21 19
3 4 3 3 4 4 4 4 4 4 6 6 8 10 13 12 13 12 13 15 16 17 18 19 20 20 19 20 21 20 19 19 19 18 17 16 13 13 17 15 17 14 17 19 20 21 21
3 3 3 3 3 3 3 4 4 4 4 8 8 9 12 12 13 13 15 16 16 17 18 20 20 19 20 17 17 17 16 16 17 16 17 14 13 10 12 12 13 17 19 20 17 17 17
3 3 3 3 3 4 4 4 4 5 4 6 7 9 11 9 14 14 15 16 17 18 17 19 20 20 18 17 15 16 12 15 18 16 16 16 11 11 12 12 15 19 20 19 18 18 18
3 3 3 3 4 4 4 4 4 4 5 6 6 7 8 11 13 16 15 17 16 15 17 17 18 16 17 11 11 15 14 16 16 17 15 13 10 11 9 12 12 15 18 20 18 13 17
3 3 3 3 3 4 4 4 4 5 5 6 7 6 7 9 13 16 15 16 17 15 16 15 17 17 14 8 10 12 13 16 14 14 12 10 9 10 6 9 11 15 18 19 16 14 16
3 3 3 3 3 4 4 4 4 5 5 6 6 7 8 9 11 12 16 17 17 17 15 14 14 14 9 12 11 10 10 12 12 14 13 13 10 8 10 9 14 16 18 17 14 14 15
3 3 4 4 3 4 4 4 5 5 6 6 6 7 6 7 10 10 12 13 20 17 14 13 16 15 13 12 10 9 11 8 12 12 15 15 12 11 12 12 14 17 17 15 14 14 14

GFSGBSN_925_temp_033.txt.gz
Temp
8 8 9 9 9 10 11 11 11 12 14 14 13 13 13 13 12 12 12 13 13 14 14 14 12 13 14 14 17 23 23 22 21 19 20 21 21 21 21 22 22 21 23 22 22 20 20
8 8 8 9 9 9 10 10 11 12 13 14 13 13 13 12 12 12 12 13 13 14 14 13 12 13 12 17 22 23 22 21 20 20 21 21 21 21 21 21 22 23 22 21 21 20 21
8 8 8 8 9 9 9 9 10 11 12 12 13 13 13 13 12 12 12 13 13 13 13 12 10 12 11 16 22 22 21 22 22 22 21 22 23 23 23 22 23 23 23 21 21 21 22
8 8 8 8 8 8 8 9 9 10 11 12 12 13 13 13 13 12 12 13 13 13 14 11 11 11 12 21 22 22 22 21 23 23 22 24 24 22 23 22 21 22 21 21 22 21 22
7 8 8 8 8 8 8 8 9 9 10 12 12 13 13 12 12 12 13 14 13 13 12 11 11 11 15 21 20 25 24 22 24 23 23 24 23 21 21 21 19 19 21 22 22 22 22
8 7 7 8 8 8 8 8 8 9 9 10 11 13 13 12 12 12 13 14 14 11 11 10 10 13 17 22 23 24 25 23 23 23 22 22 18 19 18 19 19 21 21 21 22 24 21
8 8 8 7 7 7 8 8 8 9 9 9 10 12 12 12 12 12 13 14 12 13 11 15 17 16 18 21 23 23 25 23 23 22 21 20 19 19 20 20 22 22 21 20 22 23 23
7 8 8 8 7 7 7 8 8 8 9 9 10 11 11 12 12 12 12 11 14 14 13 15 16 16 18 19 20 22 24 23 22 21 20 19 20 21 21 22 22 22 21 22 21 22 21
6 7 8 7 8 8 7 7 8 8 8 9 9 10 11 12 12 12 11 13 14 14 13 16 16 17 18 19 19 20 22 22 22 21 20 19 22 22 23 23 22 21 21 20 21 22 21
6 6 6 7 8 7 7 7 7 8 8 8 9 10 11 11 11 12 11 14 14 14 14 17 18 19 20 21 21 23 24 23 22 20 19 20 21 22 22 22 21 20 22 21 22 21 21
6 6 6 6 7 8 7 7 7 8 8 8 9 9 11 11 12 11 14 14 14 14 14 20 19 22 21 21 23 22 24 23 21 20 20 20 21 21 22 22 21 21 22 21 23 21 20
5 5 5 6 6 7 7 7 7 7 8 8 8 9 10 9 10 14 14 15 15 13 14 20 21 20 21 22 23 23 23 23 21 20 20 21 21 22 22 23 21 22 23 19 18 18 17
5 5 5 5 6 6 7 7 7 7 7 8 8 9 9 10 11 13 14 14 14 12 19 21 21 20 20 20 21 23 22 21 20 20 20 21 22 22 23 23 22 21 19 17 18 15 16
5 5 5 5 5 6 6 7 7 7 7 7 8 8 9 9 12 12 14 14 14 16 17 20 21 20 20 20 21 21 21 20 21 20 18 19 19 22 22 22 22 21 20 16 19 16 18
5 5 5 5 5 6 6 7 7 7 7 7 8 8 9 9 11 12 13 14 14 16 19 20 21 20 20 21 21 21 19 19 20 20 20 19 20 20 20 22 22 22 20 19 15 14 15
5 5 5 5 5 6 6 6 8 6 6 7 7 7 9 9 10 11 13 15 16 17 19 18 20 20 18 19 20 19 18 20 21 19 20 19 20 20 20 22 22 22 20 19 16 19 18
6 5 5 5 5 5 6 6 7 7 6 6 7 8 11 9 10 10 12 14 16 18 19 18 20 20 20 19 19 18 20 21 20 20 20 18 19 19 20 20 20 20 20 19 18 14 16
6 5 5 5 5 5 6 5 6 7 6 6 7 9 9 10 10 10 11 14 16 17 18 18 18 18 19 19 19 19 20 21 19 18 20 18 16 14 20 21 21 21 21 18 14 18 12
6 5 5 5 5 6 5 5 5 7 7 6 7 9 9 11 11 10 12 14 15 17 16 17 18 19 20 18 20 19 19 20 19 19 18 18 17 14 18 19 20 22 20 18 16 12 15
6 5 5 5 5 5 5 5 5 6 6 6 7 9 10 10 13 13 12 13 14 16 16 17 17 18 20 20 20 18 19 20 19 19 16 17 17 17 16 18 19 21 21 19 17 13 15
6 5 5 5 5 5 5 4 5 6 6 5 7 10 12 11 10 12 13 14 14 15 15 16 16 17 17 18 20 19 19 19 19 17 18 18 18 19 19 20 20 20 21 19 18 18 16
6 5 5 4 5 5 4 4 5 7 5 4 7 9 11 11 12 12 12 13 14 15 15 16 17 18 18 16 18 18 18 18 19 19 19 17 16 19 19 18 18 19 19 19 18 19 17
6 5 4 4 4 4 4 4 5 7 5 4 6 7 9 12 12 12 13 13 14 15 15 17 18 18 16 17 17 18 18 18 19 18 16 16 13 13 16 15 16 14 16 17 18 18 19
6 5 4 4 4 4 4 5 5 5 5 5 7 7 9 11 12 12 13 13 14 15 16 17 17 17 18 16 16 16 15 15 15 14 15 13 12 10 11 12 13 17 18 17 17 17 16
5 4 4 4 4 4 4 5 5 4 4 4 8 7 9 9 12 13 12 13 14 15 15 17 17 18 16 16 14 15 12 15 16 14 14 14 10 10 12 12 15 18 17 17 17 18 17
4 4 4 4 4 4 4 4 4 4 4 3 5 7 7 9 11 14 13 14 13 14 14 15 17 15 14 11 10 14 14 15 14 16 14 12 10 12 9 12 13 15 17 18 16 13 16
4 3 3 3 4 4 4 3 4 4 4 4 5 7 8 7 10 13 13 13 14 14 14 14 14 15 14 8 9 11 12 15 14 14 12 10 8 10 6 9 11 14 17 17 16 15 14
3 3 3 3 3 3 3 3 4 4 4 4 4 6 7 7 9 11 11 13 15 15 14 13 15 13 8 12 11 10 10 12 12 14 13 13 11 8 7 9 14 15 16 16 13 14 14
2 3 3 3 3 3 3 4 4 4 3 4 6 6 7 7 8 8 9 10 11 16 14 11 16 14 13 12 9 9 9 7 11 12 14 15 12 11 12 12 14 15 16 15 13 13 13

GFSGBSN_925_temp_039.txt.gz
Temp
8 8 8 8 8 8 8 8 9 9 9 10 10 11 12 12 13 12 12 13 13 12 13 13 14 15 15 16 18 21 21 21 20 20 20 20 21 21 22 21 21 21 22 22 21 21 20
8 8 8 8 8 8 8 8 8 8 9 9 10 10 11 11 12 13 12 12 12 12 12 13 13 14 13 17 20 20 21 20 20 19 20 20 22 21 21 21 22 22 22 21 20 21 21
8 8 8 8 8 8 8 8 8 8 8 9 9 9 10 11 11 12 12 12 12 12 12 12 12 12 12 17 20 19 20 20 21 21 20 20 21 22 22 22 22 22 23 22 21 21 21
7 7 8 8 8 8 8 8 8 8 8 8 9 9 9 10 11 12 12 12 12 12 12 12 11 11 14 19 19 19 20 20 20 20 21 21 21 21 21 21 22 22 22 23 22 21 20
7 7 7 8 8 8 8 8 8 8 8 8 8 9 9 10 10 11 11 12 12 12 12 11 10 11 16 19 19 21 21 21 20 20 21 21 21 20 21 22 22 20 22 22 22 22 21
7 7 7 7 7 8 8 8 8 7 8 8 8 8 9 9 10 11 11 12 13 11 10 9 10 13 17 20 21 21 21 21 22 21 21 21 19 21 20 22 22 22 22 22 22 23 22
7 7 7 6 7 7 7 8 8 8 8 8 8 8 9 9 10 11 11 13 12 12 10 16 16 16 17 19 20 21 21 21 21 21 21 20 21 21 21 21 21 22 22 22 22 22 22
6 6 6 6 6 7 7 7 8 8 8 8 8 8 8 9 10 10 10 11 13 12 13 14 15 15 16 18 18 20 21 22 21 21 20 20 21 21 20 20 21 22 22 22 21 21 21
6 6 6 6 6 6 7 7 7 8 8 8 8 8 8 9 10 10 11 12 13 12 13 15 15 15 17 18 18 19 21 20 21 20 20 20 21 21 20 21 21 21 22 21 22 21 21
6 6 6 6 6 6 6 6 7 7 8 8 8 8 8 8 9 11 11 12 12 12 14 16 16 17 17 18 19 20 21 22 20 21 19 20 20 21 21 22 22 22 22 21 21 21 22
6 6 6 6 6 6 6 6 7 7 8 8 8 8 8 8 9 9 12 12 12 12 15 19 16 18 17 20 21 20 21 21 20 20 20 21 20 20 21 21 21 22 20 21 21 21 21
6 6 6 6 6 6 6 6 6 7 7 8 8 8 8 8 8 11 11 12 12 14 14 19 18 17 18 19 20 20 21 20 20 19 19 20 20 20 21 21 21 21 21 20 19 20 21
6 6 6 6 6 6 6 6 6 7 7 7 8 8 8 8 10 11 11 13 13 13 18 19 18 18 18 19 19 20 20 20 21 19 19 20 21 21 21 22 21 21 21 21 21 20 21
6 6 6 6 6 6 6 5 6 6 6 6 7 7 7 8 9 10 12 12 13 15 16 18 19 18 19 19 20 19 19 20 19 20 18 20 20 21 21 22 22 20 21 21 20 20 21
6 6 6 6 6 6 6 5 5 6 6 6 7 7 6 7 9 9 11 12 15 15 17 18 19 18 18 19 20 19 19 20 20 19 21 18 20 20 20 21 22 21 21 20 17 15 19
6 6 6 6 6 6 6 6 5 6 6 6 6 6 7 8 8 8 11 13 14 16 17 18 18 18 18 18 19 19 18 19 20 19 20 20 20 19 20 20 20 21 20 20 18 19 19
6 6 6 6 6 6 6 6 5 6 6 6 6 6 8 8 8 10 11 13 15 16 18 17 17 17 18 18 19 17 19 20 20 18 19 18 20 19 20 21 21 20 20 18 19 18 20
6 6 6 6 6 6 6 5 5 5 6 5 6 6 7 8 8 10 11 13 14 16 16 17 17 17 18 17 17 18 19 21 18 19 20 19 18 18 21 20 20 20 21 20 20 19 16
5 5 6 6 6 6 6 5 5 5 5 5 5 7 7 8 9 11 12 13 13 15 16 16 16 16 18 18 18 18 18 19 16 19 19 18 18 19 20 20 19 20 19 18 16 16 17
5 5 5 6 6 6 6 5 5 5 5 5 6 6 7 7 11 12 11 12 13 14 15 16 16 16 18 18 17 18 18 18 16 18 15 19 17 19 20 21 20 19 19 18 19 18 18
5 5 5 5 6 6 6 5 5 5 5 5 6 7 8 7 8 11 12 12 13 13 15 15 15 16 16 17 18 17 17 17 17 14 17 19 19 17 18 19 19 20 20 18 19 19 20
5 5 5 5 5 6 6 5 5 5 5 5 6 7 8 10 9 10 11 12 13 14 15 15 15 16 16 16 18 17 17 17 18 15 17 16 18 17 18 17 18 19 19 18 18 18 18
4 5 5 5 5 5 5 5 5 5 5 5 5 5 9 10 10 9 11 12 13 13 14 15 15 15 15 17 17 17 17 18 17 17 16 16 15 16 18 15 17 16 17 19 18 18 19
4 5 5 5 5 5 5 5 5 5 5 5 6 6 7 9 9 10 11 12 13 13 13 15 15 15 16 16 16 16 14 15 15 15 15 14 15 14 15 13 17 20 17 18 19 19 18
5 5 5 5 5 5 5 5 5 5 5 5 6 6 7 9 11 11 11 11 13 13 13 14 15 15 15 16 15 16 13 15 14 13 14 14 13 13 15 16 17 18 17 18 18 21 19
5 4 5 5 5 5 5 5 5 5 5 5 6 7 6 9 9 12 11 12 11 12 12 12 14 14 13 12 12 14 15 15 15 15 13 12 12 16 12 16 17 18 18 16 18 18 17
5 5 5 5 5 5 5 5 5 5 5 5 6 7 7 7 8 9 12 11 12 12 11 11 13 13 14 9 11 13 15 15 15 14 13 13 12 14 11 15 15 16 16 16 18 20 16
5 5 5 5 6 5 5 5 5 5 5 6 4 6 6 6 6 8 8 10 12 12 11 11 12 12 9 11 12 13 12 13 14 14 14 15 14 13 11 14 17 15 15 18 18 15 15
5 5 5 5 5 5 4 5 5 4 5 5 4 5 6 6 6 7 8 8 8 14 13 12 13 12 12 12 10 9 11 9 14 16 13 16 16 16 16 17 16 15 17 16 14 16 14

GFSGBSN_925_temp_042.txt.gz
Temp
8 9 8 8 8 8 8 8 8 9 9 9 9 10 11 12 11 12 12 13 12 12 12 12 13 14 15 21 24 21 22 21 19 19 23 25 25 26 26 26 26 25 26 26 25 25 25
8 8 8 8 8 8 8 8 8 8 8 8 8 9 10 10 11 11 12 12 12 12 12 12 12 13 15 21 21 20 20 19 21 21 23 24 26 26 26 26 25 26 26 26 24 24 25
7 7 7 8 8 8 8 8 8 7 8 7 8 9 9 10 10 11 11 12 12 12 12 12 12 11 15 21 19 19 19 21 21 22 25 24 24 25 26 26 26 26 26 26 25 25 25
7 7 7 8 8 8 8 8 8 8 8 8 8 8 9 9 10 10 11 11 12 12 12 12 11 11 18 19 19 18 20 21 20 21 22 23 23 25 25 26 26 26 26 26 27 25 25
7 7 7 7 7 7 7 8 8 8 8 8 8 8 8 9 9 10 12 12 12 12 11 11 10 13 20 18 19 21 21 23 22 22 22 22 24 25 25 26 26 26 26 26 27 26 26
7 7 7 7 7 7 7 7 8 8 8 8 8 8 8 8 9 10 12 13 12 11 10 9 11 14 19 23 22 21 21 22 24 24 24 24 25 25 26 26 25 26 26 26 26 27 26
7 7 7 7 7 7 7 7 7 8 8 8 8 8 8 8 9 10 11 13 16 15 12 19 20 20 22 22 20 22 22 22 24 25 24 25 25 25 26 26 26 26 26 26 27 27 26
6 6 6 6 6 6 7 7 7 7 8 8 8 8 8 8 9 10 10 15 16 14 16 18 18 19 19 20 22 23 22 24 24 24 25 24 25 25 24 25 25 25 26 26 26 25 25
6 6 6 6 6 6 6 6 7 7 7 8 8 8 8 8 9 10 12 14 13 13 16 18 20 19 20 19 22 24 24 25 24 25 24 25 25 24 24 25 24 25 25 25 25 25 25
6 6 6 6 6 6 6 6 6 7 7 7 8 8 8 8 9 12 13 12 12 12 17 20 19 20 19 21 21 25 24 25 24 24 25 25 25 24 25 25 25 25 26 25 25 25 26
6 6 6 6 6 6 6 6 6 6 7 7 7 8 8 8 8 12 13 12 11 13 18 22 20 20 20 22 24 24 25 25 25 24 24 25 24 24 24 25 25 25 25 25 25 26 25
6 6 6 6 6 6 6 6 6 6 7 7 7 7 8 8 7 11 11 12 13 17 17 21 21 19 19 21 24 24 23 25 26 25 24 26 24 25 26 25 25 24 25 25 25 25 24
6 6 6 6 6 6 6 6 6 6 6 7 7 7 7 9 10 11 10 14 16 17 21 22 21 20 21 21 23 24 23 23 24 22 23 24 24 25 24 24 24 25 25 24 23 23 24
6 6 6 6 6 6 6 6 6 6 6 7 7 7 7 8 9 9 11 13 16 20 20 21 21 21 21 23 23 24 24 24 25 25 25 24 23 24 25 25 25 25 25 24 22 23 24
6 6 6 6 6 6 6 6 6 6 6 7 6 6 6 7 8 8 11 13 17 19 20 20 21 20 20 22 23 23 24 24 25 25 24 24 24 25 25 25 26 24 24 25 23 21 23
6 6 6 6 6 6 6 6 6 6 6 6 6 6 7 7 8 7 11 14 18 21 20 20 20 21 20 21 22 23 23 25 25 25 26 24 23 24 23 24 24 25 25 23 24 22 22
6 6 6 6 6 6 6 6 6 6 6 6 6 6 8 7 8 7 11 15 17 20 20 20 20 21 21 21 21 23 23 23 25 24 26 25 24 22 23 24 25 24 24 24 24 24 22
6 6 7 6 6 6 6 6 6 6 6 6 6 6 8 8 7 8 11 15 17 19 19 19 19 20 20 21 21 22 23 24 25 25 23 25 24 23 24 24 24 26 25 25 23 23 22
5 5 6 6 6 6 6 6 6 6 5 6 6 6 8 9 7 8 12 14 17 18 19 19 19 20 20 20 20 22 23 25 24 24 24 23 23 22 23 23 23 24 24 25 24 22 23
5 5 5 5 6 6 6 6 6 5 5 6 6 6 7 7 13 12 12 14 15 17 18 19 19 19 19 20 21 21 23 21 21 24 20 22 24 23 23 24 25 23 24 24 24 22 23
5 5 5 5 5 6 6 6 6 6 5 6 6 7 8 8 9 13 14 15 15 15 17 18 18 19 19 19 20 20 21 20 19 16 22 23 23 24 24 25 26 25 25 24 24 24 24
4 5 5 5 5 5 6 6 6 5 5 6 5 9 10 11 11 11 13 14 15 16 17 17 18 19 19 19 20 20 19 20 22 19 22 23 23 23 22 24 24 24 25 25 25 25 25
4 4 5 5 5 5 5 6 6 5 5 5 6 10 13 12 11 11 12 13 14 16 17 18 19 19 18 19 19 18 18 19 20 21 21 21 22 21 21 22 22 20 22 24 25 24 24
5 5 5 5 5 5 5 5 5 5 5 5 8 9 10 12 12 11 12 13 14 15 16 17 19 18 19 17 18 19 18 18 19 20 21 20 20 21 21 16 18 24 24 25 24 25 26
5 5 4 5 5 5 5 5 5 5 5 6 8 9 11 10 13 12 12 13 14 15 15 17 17 18 18 18 16 15 15 18 18 19 19 21 20 19 18 20 23 22 21 22 23 25 26
5 6 5 5 4 5 5 5 5 5 4 6 7 9 10 11 12 14 12 13 13 14 14 16 18 17 17 15 16 16 17 17 19 17 16 18 18 20 17 20 19 24 25 24 23 23 26
5 5 5 5 5 5 5 5 5 5 4 6 7 8 10 11 14 14 12 12 14 15 15 15 15 15 17 14 14 16 17 20 19 17 15 16 16 17 19 19 22 23 22 22 22 23 24
5 5 5 5 5 5 5 6 5 5 4 6 6 7 10 10 11 10 11 12 14 15 14 15 15 15 15 14 15 17 16 17 19 20 17 18 18 17 19 17 19 21 20 23 25 21 23
5 5 5 5 5 5 5 5 5 4 5 5 6 6 8 9 7 8 7 8 8 16 16 15 16 16 16 16 16 18 15 13 19 18 18 17 20 21 21 21 24 21 25 23 23 24 21

GFSGBSN_925_temp_048.txt.gz
Temp
7 8 8 8 8 8 9 9 9 9 9 8 8 8 8 9 9 10 10 11 11 11 12 12 12 13 15 21 24 23 23 23 22 21 24 27 27 28 27 29 30 29 29 30 30 29 29
7 7 7 8 8 8 8 8 9 9 9 8 8 8 8 8 9 9 10 10 11 11 11 12 12 12 16 19 25 25 23 21 23 23 26 27 28 29 28 28 29 29 29 29 29 29 29
7 7 7 7 8 8 8 8 8 8 9 8 8 8 8 8 8 9 9 10 11 11 12 12 13 12 16 19 25 25 24 23 24 25 27 28 28 28 28 28 30 29 28 29 29 29 28
7 7 7 7 7 8 8 8 8 8 8 9 8 8 8 8 8 8 9 10 11 12 12 12 12 12 17 22 24 24 25 25 26 26 27 28 28 27 27 28 28 28 28 27 29 28 23
7 7 7 7 7 7 8 8 8 8 8 8 8 9 8 8 8 8 9 10 12 12 12 12 12 15 19 22 23 23 25 25 26 26 26 27 27 26 27 26 26 27 26 27 28 28 27
7 7 7 7 7 7 7 7 8 8 8 8 8 8 8 8 8 8 8 11 15 11 13 13 15 18 20 23 25 25 25 25 27 26 26 26 26 25 26 26 25 27 28 28 26 27 27
7 7 7 7 7 7 7 7 7 7 8 7 7 8 8 9 8 8 8 12 17 16 16 20 21 21 25 25 25 25 25 25 26 26 24 26 24 24 26 28 28 29 28 27 27 28 26
6 6 6 6 6 7 7 7 7 7 7 7 7 8 8 8 9 8 8 14 20 18 17 21 22 22 23 24 24 25 26 25 24 24 26 25 25 27 28 29 28 28 27 28 29 29 28
6 6 6 6 6 6 7 7 7 7 7 7 7 7 8 8 8 8 10 14 18 18 17 20 23 23 23 24 23 25 26 25 24 24 25 25 27 29 28 27 27 27 27 28 26 28 29
6 6 6 6 6 7 7 7 7 7 7 7 7 7 7 7 8 11 14 16 17 17 16 21 24 24 25 24 23 25 27 25 25 25 26 26 28 28 27 27 28 26 29 28 27 27 26
6 6 6 6 6 7 7 7 7 7 7 7 7 7 7 7 9 12 13 14 17 16 16 25 26 25 25 23 25 25 26 26 25 25 26 26 27 27 26 27 28 27 28 27 27 27 27
6 6 6 6 6 6 7 7 7 7 7 7 7 7 7 7 8 10 12 12 16 16 17 24 24 23 23 24 24 26 25 27 26 26 26 27 29 28 28 28 28 29 28 27 27 26 24
6 6 6 6 6 6 6 7 7 7 7 7 7 7 7 8 9 11 11 11 15 16 23 23 24 24 23 23 23 23 24 24 24 23 24 26 27 29 29 27 28 27 26 24 23 24 24
5 6 6 6 6 6 6 6 7 7 7 6 7 7 7 8 9 10 9 11 15 20 20 25 26 25 23 23 24 23 25 24 25 25 25 24 24 27 28 27 26 26 26 24 20 20 22
5 6 6 6 6 6 6 6 6 7 7 7 7 6 7 8 8 9 9 11 15 18 23 22 24 23 24 24 25 24 25 25 26 25 24 24 25 28 28 28 27 27 25 27 22 22 21
5 5 6 6 6 6 6 7 6 7 7 7 6 6 8 9 8 8 8 11 16 19 21 23 22 24 23 24 24 24 24 26 26 26 26 25 25 28 28 28 28 27 28 25 26 22 21
5 5 5 6 6 6 6 6 6 6 7 7 6 6 9 9 8 8 9 11 14 18 20 20 21 22 23 24 25 24 25 26 26 26 26 26 25 26 28 26 26 26 26 25 26 25 22
5 5 5 6 6 6 6 6 6 6 7 6 6 7 9 9 7 8 10 12 14 17 19 19 21 20 23 24 24 23 24 26 28 27 25 25 25 23 26 28 28 27 27 26 24 23 24
4 5 5 5 6 6 6 6 6 6 7 6 6 6 9 9 7 8 11 13 14 15 17 19 20 20 22 23 22 24 24 26 25 26 25 25 24 22 24 25 27 26 27 27 27 26 24
4 5 5 5 5 6 6 6 6 6 6 6 6 6 7 8 12 11 11 13 13 15 16 19 20 21 21 22 22 23 23 26 25 25 20 22 24 23 22 24 26 25 26 26 25 22 22
4 5 5 5 5 6 6 6 6 6 6 6 6 7 8 8 8 12 12 14 14 14 16 17 19 20 21 18 21 20 23 22 24 23 23 23 23 24 25 26 27 26 26 26 26 26 24
5 5 5 5 6 6 6 7 6 6 6 6 4 9 11 12 10 11 12 13 14 16 16 16 18 20 21 20 21 20 22 22 23 23 23 24 22 23 22 25 25 25 25 27 27 27 27
4 5 5 5 5 5 5 5 5 6 6 7 5 9 12 11 10 10 11 13 14 16 17 18 18 19 20 20 20 17 20 19 22 22 22 22 22 21 20 24 24 22 25 26 27 27 27
4 4 4 4 4 5 5 5 5 6 6 5 4 10 10 11 11 11 13 14 14 16 16 18 19 18 21 21 17 14 18 19 19 22 22 21 21 20 17 18 19 24 26 27 26 26 27
4 4 4 4 4 4 5 5 5 5 5 4 4 9 10 10 13 12 13 14 15 16 16 17 19 20 21 18 14 11 13 14 18 21 21 21 20 19 18 18 22 24 25 25 25 25 27
4 4 5 4 4 4 4 4 5 5 5 5 3 7 10 10 12 14 13 14 14 15 16 17 18 20 20 18 14 13 12 17 18 20 21 20 19 18 18 18 18 22 25 26 26 22 27
5 5 5 5 5 4 4 4 5 5 5 5 4 5 9 9 13 14 14 14 15 15 15 17 17 18 16 16 14 12 13 20 19 19 16 16 16 16 17 17 20 24 25 26 22 22 26
5 5 6 5 5 5 5 4 5 5 5 5 4 5 8 8 13 12 12 10 13 16 15 17 17 16 12 13 15 16 16 18 19 21 16 14 15 15 17 17 18 24 24 23 24 24 26
5 5 5 5 5 5 5 5 4 5 5 4 5 5 8 9 8 9 10 10 11 14 16 16 17 17 16 13 16 17 16 16 19 17 21 16 16 16 19 20 21 22 22 24 24 25 25

GFSGBSN_925_temp_051.txt.gz
Temp
7 7 7 8 8 8 8 8 9 9 9 8 8 8 8 8 8 8 9 9 10 10 11 11 12 12 14 16 19 23 24 23 22 22 22 22 23 23 23 24 24 25 26 27 26 27 22
7 7 7 7 8 8 8 8 8 9 9 9 8 8 8 8 8 8 8 9 10 10 11 11 12 12 12 14 22 23 24 23 22 22 22 23 23 25 24 25 24 25 26 26 26 25 23
7 7 7 7 8 8 8 8 8 8 8 9 9 9 8 8 8 8 8 8 9 10 11 11 11 10 12 15 22 22 22 23 23 23 22 24 25 25 24 23 25 25 24 25 25 26 20
7 7 7 7 7 7 7 8 8 8 8 8 8 9 9 8 8 8 8 8 9 11 11 11 11 10 11 19 22 20 23 23 24 24 24 25 27 24 25 23 24 23 23 22 25 25 22
7 7 7 7 7 7 7 7 7 8 8 8 8 8 9 9 8 8 8 8 12 13 12 12 10 11 14 20 20 22 23 24 25 25 26 26 26 24 23 21 20 22 21 22 25 23 22
7 7 7 7 7 7 7 7 7 7 7 8 8 8 8 9 9 8 8 9 17 12 12 11 12 13 16 20 23 23 23 23 24 24 24 24 22 20 20 19 19 21 23 23 24 25 23
6 7 7 6 7 7 7 7 7 7 7 7 7 7 7 8 9 9 8 10 13 12 13 15 16 16 20 22 23 24 24 24 24 23 21 22 20 19 20 21 23 24 24 24 25 25 25
6 6 6 6 6 6 7 7 7 7 7 7 7 7 7 8 8 8 8 8 14 14 14 17 18 18 19 20 21 23 25 21 21 21 22 21 20 22 24 24 25 25 24 24 26 27 24
6 6 6 6 6 6 7 7 7 7 7 7 7 7 7 7 8 8 9 10 14 14 13 16 18 19 20 21 21 21 22 22 21 21 22 21 22 24 24 24 25 25 24 23 25 26 25
6 6 6 6 6 6 7 7 7 7 7 7 7 7 7 7 8 9 9 12 13 15 11 16 20 20 21 21 20 23 24 23 22 22 22 22 24 24 25 25 25 23 25 26 25 25 22
5 6 6 6 6 6 7 7 7 7 7 7 7 7 7 7 8 8 11 12 13 16 11 20 22 24 23 20 22 21 23 22 22 22 22 22 24 24 24 25 25 24 26 26 25 23 22
5 5 6 6 6 6 7 7 7 7 7 7 7 7 7 7 7 8 10 11 13 13 13 20 22 22 21 21 22 23 22 22 23 22 23 23 25 25 24 26 26 26 26 25 24 22 19
5 5 5 6 6 6 6 7 7 7 7 7 7 7 7 7 8 9 9 10 12 11 20 21 21 22 21 21 21 22 21 21 20 20 20 23 24 25 26 25 25 24 24 19 18 17 17
5 5 5 5 6 6 6 7 7 7 7 7 7 7 6 7 8 8 9 10 11 16 16 22 22 22 21 22 22 21 21 20 21 22 20 20 20 24 26 25 23 23 22 17 18 16 19
5 5 5 5 5 6 6 6 7 7 7 7 7 6 6 7 8 8 8 10 12 15 19 19 21 20 21 22 22 21 20 20 22 22 21 21 22 25 26 26 25 23 21 22 19 19 17
4 5 5 5 5 6 6 6 6 7 7 7 6 6 6 8 7 8 8 10 13 16 18 19 17 20 20 22 21 21 20 22 22 23 23 22 21 24 25 26 25 24 24 21 20 18 17
4 5 5 5 5 5 6 6 6 7 7 7 6 6 6 8 7 7 8 9 12 14 15 16 17 17 18 18 20 22 22 23 23 23 24 23 21 21 24 24 24 23 23 23 21 19 18
4 4 4 5 5 5 6 6 6 6 7 6 6 6 7 7 6 7 8 10 12 14 14 14 16 17 17 17 18 18 21 22 24 24 23 23 21 19 22 25 26 24 23 22 18 20 18
4 4 4 4 5 5 5 6 6 6 7 6 6 6 8 8 7 7 9 10 10 11 13 15 15 17 18 17 16 18 20 22 21 23 23 22 19 19 19 22 25 24 24 24 22 20 17
3 4 4 4 5 5 5 5 6 6 6 6 5 6 7 7 9 9 9 9 9 12 12 13 14 15 15 17 18 17 19 21 20 23 19 22 20 19 19 21 23 23 23 24 22 17 19
3 4 4 4 4 4 5 5 5 6 6 6 5 6 7 8 7 8 9 10 10 10 13 13 13 14 15 15 17 17 18 18 17 19 21 21 19 21 21 23 24 24 24 24 23 22 19
4 4 4 4 5 5 5 5 5 6 6 7 4 6 8 9 9 8 9 9 10 12 12 13 13 14 15 15 16 17 15 16 15 17 19 20 18 20 20 22 23 23 24 23 22 23 23
4 4 4 5 5 5 5 5 5 6 6 7 6 6 9 9 8 8 8 9 11 11 12 14 14 13 13 15 17 16 14 15 15 14 15 18 17 17 17 21 21 18 20 23 23 23 23
4 4 4 4 5 5 5 5 6 6 6 7 6 8 7 8 8 8 10 10 10 12 12 14 15 14 15 16 15 14 14 14 15 15 16 14 17 15 14 17 17 21 23 24 23 23 23
4 4 4 4 4 4 5 5 6 5 6 5 4 7 8 7 9 10 9 10 11 12 12 13 15 16 16 15 13 12 11 13 13 16 16 15 15 14 16 17 18 21 23 23 23 22 24
4 4 4 4 4 4 4 4 5 5 6 5 4 5 6 7 9 11 10 11 10 11 11 12 14 14 15 14 12 12 10 13 13 15 17 15 16 14 13 15 16 18 21 23 23 19 22
4 4 4 4 4 4 4 4 4 5 5 5 5 4 4 5 10 12 11 11 12 12 11 12 13 13 14 10 12 11 11 15 13 11 15 14 12 14 11 12 14 20 22 24 19 19 22
5 5 5 5 5 5 5 5 4 4 5 4 4 3 4 3 8 11 11 10 12 12 11 12 12 12 10 11 11 10 9 14 15 15 12 13 13 12 13 13 14 17 20 20 19 21 21
5 5 5 5 5 5 5 5 4 4 4 4 5 3 4 4 7 8 11 12 11 11 11 11 12 14 10 10 9 10 10 11 13 12 15 13 14 13 14 13 16 17 17 18 20 21 21

GFSGBSN_925_temp_057.txt.gz
Temp
7 7 8 8 8 8 7 7 8 8 8 8 8 9 9 9 9 8 8 8 8 8 8 9 9 9 10 12 14 22 21 21 21 21 21 20 20 21 21 21 22 21 22 22 22 20 20
7 7 7 7 7 7 7 7 7 7 7 8 8 8 8 8 8 8 8 8 8 8 8 9 9 8 10 11 19 19 19 19 20 20 20 20 21 20 22 21 22 22 22 21 22 19 19
7 7 7 7 7 7 7 7 7 8 8 8 8 7 8 8 8 8 8 9 9 9 9 9 9 8 11 11 19 18 17 18 19 20 19 21 21 21 22 21 22 23 21 21 21 19 20
7 7 7 7 7 7 7 7 7 7 8 8 8 7 8 8 8 8 8 8 9 9 9 9 8 9 10 17 16 16 19 19 19 20 19 20 21 21 21 22 20 21 21 20 22 21 21
7 7 7 7 7 7 7 7 7 7 7 8 8 8 7 7 8 8 8 8 9 10 9 9 8 9 11 16 16 20 18 18 20 21 20 21 21 20 22 19 18 18 18 20 21 21 21
7 7 7 7 7 7 7 7 7 7 7 7 7 7 8 8 8 7 8 9 11 10 9 9 10 10 13 17 19 20 20 18 19 20 20 20 19 18 16 17 16 18 19 20 19 21 20
6 6 7 6 6 6 6 6 7 7 7 7 7 7 7 7 7 8 7 8 9 11 10 11 13 13 15 18 19 20 20 18 20 20 18 19 18 17 19 18 19 20 20 19 19 21 21
6 6 6 6 6 6 6 6 7 7 7 7 7 7 7 7 7 7 7 7 9 9 9 11 12 13 15 16 16 18 20 19 18 17 18 19 18 20 19 19 19 19 19 19 20 22 20
5 5 5 5 5 6 6 6 6 7 7 7 7 7 7 7 7 7 7 8 8 8 9 11 13 14 16 15 15 16 18 19 18 17 18 18 20 21 20 19 19 19 19 19 19 21 22
5 5 5 5 5 5 5 6 6 7 7 7 7 7 7 7 7 6 7 8 8 8 9 13 14 15 16 16 15 18 20 19 18 19 18 18 20 20 19 20 19 18 20 21 20 20 20
5 5 5 5 5 5 6 6 7 7 7 7 7 7 7 7 7 6 9 8 9 8 10 17 17 18 17 17 19 18 19 19 18 18 18 18 19 19 20 21 20 19 21 20 20 20 20
5 5 5 4 5 5 6 6 6 7 7 7 7 7 7 6 6 7 7 8 8 11 11 16 18 17 16 16 18 18 17 20 19 19 19 20 21 20 20 21 20 21 22 20 18 18 18
4 4 4 4 4 5 5 6 6 6 7 7 7 7 7 6 6 7 7 8 11 10 15 17 18 17 18 17 17 19 17 18 17 16 16 19 19 20 22 21 21 20 20 17 18 16 17
4 4 4 4 4 4 5 5 6 6 7 7 7 7 7 6 7 6 7 8 11 13 13 16 17 19 18 18 18 19 17 17 17 18 16 17 17 19 20 20 21 20 19 16 18 16 18
4 4 4 4 4 4 5 5 6 6 6 6 7 6 6 6 6 6 5 8 12 12 14 14 16 17 18 19 19 19 17 17 19 17 18 16 17 21 21 22 21 20 19 20 17 16 16
3 3 4 4 4 4 4 5 5 5 6 6 5 6 7 6 6 6 5 8 10 14 12 13 14 16 15 16 17 17 17 18 19 20 19 18 18 21 21 22 21 21 21 19 17 17 17
3 3 3 3 4 4 4 4 5 5 6 6 5 6 7 7 6 6 6 8 11 12 12 12 12 13 14 15 16 17 18 18 19 19 19 18 18 18 20 19 20 20 20 20 19 16 17
3 3 3 3 3 4 4 4 5 5 6 5 6 6 6 6 6 6 6 8 11 11 12 12 12 13 13 13 15 16 17 17 18 18 18 18 17 17 19 20 21 21 20 20 17 18 15
3 3 3 3 3 4 4 4 5 5 5 6 6 5 5 7 7 6 8 8 9 10 11 11 12 12 14 14 13 13 15 16 17 17 17 17 17 17 18 19 19 19 19 20 18 16 16
2 3 3 3 3 4 4 4 4 5 5 4 3 6 5 6 6 8 7 8 8 10 10 10 10 11 12 12 13 13 13 15 16 16 15 15 16 17 17 18 19 20 21 20 20 16 17
2 3 3 3 3 3 4 4 4 4 5 4 3 5 6 6 6 8 8 9 7 9 10 10 10 10 10 10 12 12 14 14 16 16 17 15 15 15 17 19 20 21 20 19 19 19 19
2 3 3 3 3 3 3 4 4 4 4 5 3 5 6 6 8 7 8 8 9 9 10 9 9 10 10 10 11 11 12 13 14 15 15 15 13 12 15 18 19 19 20 21 20 19 19
3 3 3 3 3 3 3 3 4 4 4 5 5 5 7 7 7 7 7 8 8 9 10 10 10 9 9 10 11 11 11 12 13 13 14 14 13 12 13 14 17 16 18 20 20 20 20
2 3 3 3 3 3 3 4 4 4 4 5 5 6 6 7 7 8 9 8 8 9 9 10 10 9 10 11 10 11 10 11 12 12 13 13 12 12 12 12 14 18 20 21 20 20 20
3 3 3 4 4 4 4 4 4 4 4 4 5 6 6 7 7 8 9 8 9 9 9 9 10 11 10 10 10 10 8 11 11 12 12 13 12 11 13 13 13 18 19 19 19 20 20
4 4 4 4 4 4 4 4 4 4 4 4 4 5 6 7 7 9 8 9 7 7 8 8 10 10 11 8 8 10 8 11 12 13 13 12 11 12 11 12 14 15 17 19 20 18 19
4 4 4 4 4 4 4 5 4 4 4 4 5 5 5 5 8 9 8 8 9 7 7 8 8 8 9 6 6 7 9 11 11 11 11 12 11 12 12 12 11 14 15 16 16 17 18
4 4 4 4 4 4 4 4 4 5 4 4 4 5 5 5 6 7 9 8 8 9 7 8 9 8 6 7 6 8 5 9 11 11 11 10 10 11 11 11 12 14 14 13 14 15 17
4 5 5 4 4 4 4 4 4 4 4 4 4 4 5 5 5 5 7 8 11 10 9 7 9 9 8 7 6 6 6 4 9 9 12 11 10 10 11 11 13 14 13 13 12 14 16

GFSGBSN_925_temp_060.txt.gz
Temp
7 7 7 8 8 8 8 8 8 8 8 8 8 8 8 8 7 8 8 9 9 8 8 8 8 8 9 10 13 20 19 19 21 20 20 19 19 19 20 19 20 19 21 21 21 19 19
7 7 7 7 7 8 7 7 7 7 7 7 7 7 8 8 8 8 8 8 10 8 9 9 8 7 9 10 17 18 18 18 19 20 19 19 19 19 20 20 19 21 21 20 20 20 19
7 7 7 7 7 7 7 7 7 7 7 7 7 7 7 7 7 8 8 8 9 9 9 9 8 7 9 11 18 17 17 17 18 19 18 19 20 20 20 21 20 21 20 19 21 20 19
7 7 7 7 7 7 7 7 7 7 7 7 7 7 7 8 8 8 8 8 9 11 10 8 7 7 9 16 15 16 18 18 19 18 19 20 20 19 20 21 20 21 19 19 21 18 19
7 7 7 7 7 7 7 7 7 7 7 7 7 7 7 7 8 8 8 8 10 12 10 8 7 9 10 15 14 18 16 16 19 19 19 20 20 19 20 18 18 16 17 19 20 19 18
6 7 7 7 7 7 6 6 7 7 7 7 7 7 7 7 7 7 7 9 10 10 8 8 10 10 12 17 18 19 18 17 19 17 18 18 17 16 15 16 17 17 17 17 18 21 18
6 6 6 6 6 6 6 6 6 7 7 7 7 7 7 7 7 7 7 8 9 10 9 10 11 12 15 17 18 18 18 16 18 18 17 17 16 16 18 18 18 18 19 19 18 19 21
5 6 6 5 5 5 6 6 6 6 6 7 7 7 7 7 7 7 7 7 8 8 8 10 10 10 12 14 13 16 18 17 17 17 17 17 17 18 19 18 18 19 18 17 18 20 19
5 5 5 5 6 5 5 6 6 6 6 7 7 7 7 7 7 7 7 7 8 8 8 11 11 12 14 14 14 16 17 17 17 16 17 18 18 19 19 17 18 17 17 17 18 18 19
5 5 5 5 5 5 5 5 6 6 6 6 7 7 7 7 7 6 6 7 8 8 8 11 11 13 15 14 13 18 18 18 17 17 16 17 19 19 18 18 18 17 18 19 19 19 17
5 5 5 5 5 5 5 5 6 6 6 6 6 7 7 6 6 6 8 8 8 7 9 16 15 16 16 16 18 17 18 18 17 17 17 17 17 18 18 18 19 19 19 18 19 17 19
5 5 4 5 5 5 4 5 5 5 6 6 6 7 6 6 6 6 6 7 8 10 11 14 17 15 15 16 17 17 17 19 18 18 18 18 19 18 20 20 19 21 20 19 17 16 16
4 4 5 5 4 4 4 4 5 5 6 6 6 6 6 6 6 7 7 7 9 10 14 15 15 16 15 15 16 17 16 16 16 16 16 18 18 19 21 19 19 19 18 17 17 16 16
4 4 4 4 4 4 4 4 5 5 6 6 6 6 6 6 6 6 7 7 9 12 12 15 15 15 15 16 16 17 15 15 17 17 16 17 16 18 19 19 18 18 18 16 18 16 17
4 4 4 4 4 4 4 4 4 5 6 6 6 6 5 6 6 6 6 6 10 12 13 12 14 15 16 17 18 18 16 16 18 17 18 16 17 19 19 19 20 19 17 19 16 15 15
4 4 4 4 4 4 4 4 4 5 5 6 4 5 6 6 6 6 6 7 10 12 12 12 12 14 14 15 16 17 17 17 18 18 18 17 18 19 20 20 20 20 19 18 15 16 16
3 4 4 4 3 3 3 3 4 5 5 5 4 5 8 7 6 6 6 6 9 11 11 11 11 12 13 13 14 16 17 16 17 17 17 18 17 18 20 19 18 19 18 19 17 15 17
3 3 3 3 3 3 3 3 4 5 5 5 5 5 6 7 6 5 6 6 10 10 11 11 12 11 12 13 13 14 15 16 15 16 17 17 16 16 18 19 20 19 18 19 16 17 14
3 3 3 3 3 3 3 3 4 4 5 4 5 5 6 6 7 6 6 7 8 9 10 10 11 11 12 12 13 13 14 14 14 16 16 17 16 15 16 18 18 18 18 19 17 15 15
3 3 3 3 3 3 3 3 4 4 4 4 4 5 5 6 6 7 7 7 7 9 9 10 10 10 11 11 12 12 13 14 14 15 14 15 16 15 15 17 18 18 18 19 18 15 16
3 3 3 3 3 3 3 3 4 4 4 4 4 4 6 6 6 7 8 8 8 8 9 10 9 10 10 10 10 11 13 12 14 16 16 15 15 14 15 16 17 18 19 18 18 17 17
2 2 2 2 3 3 3 3 4 4 4 4 3 5 5 6 8 6 7 7 9 9 9 8 8 9 9 9 10 10 11 12 12 13 13 14 13 13 15 15 15 16 18 18 18 18 17
2 2 2 2 3 3 3 3 3 3 3 4 4 4 6 6 7 6 7 8 8 9 9 9 9 9 8 9 10 10 10 10 11 11 11 12 12 11 13 13 14 15 17 17 18 19 18
2 2 2 3 3 3 3 3 3 3 3 4 4 5 5 6 6 7 8 8 9 9 9 10 9 8 10 10 10 9 9 9 10 10 11 12 12 10 11 13 13 16 17 17 17 18 18
2 2 3 3 3 3 3 3 3 3 3 4 4 5 5 6 7 7 8 8 9 9 9 9 10 10 9 9 9 9 8 9 10 11 11 12 11 11 10 12 13 15 18 16 15 16 18
3 3 3 3 3 3 3 3 3 3 4 4 4 5 6 6 6 8 8 8 7 7 8 8 10 9 10 7 8 8 8 10 11 12 11 10 11 11 11 11 12 14 15 14 15 16 15
4 4 4 4 4 4 4 4 4 4 4 4 4 4 5 5 7 8 8 7 8 7 7 8 8 8 8 6 8 8 8 11 10 10 12 11 10 12 11 12 11 13 14 14 15 15 12
4 4 4 4 4 4 4 4 4 4 4 4 4 4 4 3 6 8 9 8 8 8 7 8 8 7 5 5 6 9 6 8 10 11 11 11 11 9 10 10 10 13 14 16 14 12 13
4 4 4 4 4 4 4 4 4 4 4 4 2 4 4 5 5 6 8 9 10 10 10 8 8 7 6 6 5 6 5 3 8 9 11 10 10 9 10 10 12 12 14 13 12 13 13

GFSGBSN_925_temp_063.txt.gz
Temp
7 7 7 7 7 8 7 7 7 8 8 7 7 7 8 8 8 8 8 8 8 8 8 9 9 8 10 11 14 19 19 19 19 19 19 20 20 20 21 20 20 20 22 21 22 21 21
7 7 7 7 7 7 7 7 7 7 7 7 7 7 7 7 7 8 8 8 8 8 9 9 9 8 9 11 17 17 18 17 18 18 19 19 21 21 21 21 22 22 21 22 22 22 21
7 7 7 7 7 7 7 7 7 7 7 7 7 7 7 7 7 7 7 7 8 9 9 8 7 8 8 11 18 17 17 17 17 18 19 19 20 21 21 21 21 21 22 22 23 22 22
7 7 7 7 7 7 7 7 7 7 7 7 7 7 7 7 7 7 7 8 8 10 10 9 7 8 9 15 16 14 17 16 17 18 17 19 20 20 21 21 21 21 20 21 22 20 20
6 6 7 6 7 7 7 7 6 6 6 7 7 7 7 7 7 7 7 8 10 9 9 8 8 9 10 14 14 17 15 15 17 18 18 18 19 20 20 21 20 19 21 20 22 21 20
6 6 6 6 6 6 6 6 6 6 6 6 7 7 7 7 7 7 7 9 10 9 8 8 9 11 12 16 17 17 16 15 17 17 18 18 18 19 18 20 21 20 20 19 21 21 20
6 6 6 6 6 6 5 6 6 6 6 6 7 7 7 7 7 7 7 8 9 10 9 10 11 12 13 14 16 17 16 16 17 18 18 17 19 18 20 20 20 20 20 20 21 21 21
5 5 6 6 6 5 5 5 6 6 6 6 6 7 7 7 7 7 7 7 8 6 7 10 10 10 12 13 12 16 16 17 17 18 17 17 18 20 19 19 20 20 20 21 21 20 21
5 5 6 5 5 5 5 5 6 5 6 6 6 6 6 7 6 7 6 7 7 7 7 10 12 11 12 13 12 14 17 17 17 17 18 19 20 19 19 18 19 20 20 20 21 20 21
5 5 5 5 5 5 5 5 5 5 6 6 6 6 6 6 7 6 7 7 8 7 9 11 11 12 14 14 13 16 17 18 17 18 17 19 20 19 19 19 20 19 20 20 20 20 21
5 5 5 5 5 5 5 5 5 5 5 6 6 6 6 6 6 6 7 7 8 7 10 15 14 15 15 15 17 16 17 17 18 17 18 18 18 19 19 20 20 21 20 20 20 20 19
4 4 4 5 5 5 5 4 5 5 5 5 6 6 6 6 6 7 7 7 7 9 10 14 16 15 14 15 16 16 16 18 19 17 18 19 18 20 21 19 20 21 20 19 18 19 19
4 4 4 4 5 4 4 4 4 4 5 5 6 6 6 6 6 7 7 7 9 9 14 14 14 16 15 15 15 16 15 16 17 16 17 18 19 19 19 20 19 21 21 19 19 18 20
4 4 4 4 4 5 4 4 4 4 4 5 5 5 6 6 6 6 7 7 8 12 12 14 14 15 15 17 16 16 16 15 17 18 18 18 17 19 19 20 20 20 21 20 19 19 21
4 4 4 4 4 5 4 4 4 4 4 5 5 5 5 6 6 6 6 6 10 11 12 12 13 14 15 16 16 17 16 16 17 17 18 17 18 19 19 20 21 19 19 21 18 16 19
3 3 4 4 4 4 4 4 4 3 4 5 4 4 5 6 7 5 6 8 9 11 11 12 12 13 13 14 15 16 16 16 16 18 18 18 18 19 20 20 20 21 21 20 18 19 19
3 3 3 3 3 4 4 3 3 3 4 5 4 4 7 7 6 6 6 7 9 10 11 11 11 11 12 13 13 14 15 16 15 16 18 18 19 18 19 19 20 20 20 19 20 19 20
3 3 3 3 3 3 3 3 3 3 4 4 4 4 6 6 5 6 6 7 9 10 11 11 11 11 12 13 13 14 14 15 14 16 16 18 17 17 18 19 20 20 21 21 20 18 17
2 2 3 3 3 3 3 3 3 3 4 4 4 5 5 5 6 6 6 7 8 9 10 10 11 10 12 12 12 13 13 14 14 15 15 16 16 16 17 19 19 19 20 19 18 17 20
3 3 3 3 3 3 3 3 3 3 3 3 4 4 5 5 6 6 6 6 7 8 9 9 9 10 11 11 12 12 12 14 13 15 14 15 16 16 17 17 17 18 19 20 20 18 19
2 3 3 3 3 3 3 3 3 3 4 3 3 4 5 5 5 5 7 8 8 8 9 9 9 10 10 10 11 11 13 12 14 13 15 15 14 15 15 16 16 16 17 19 19 19 19
2 2 2 2 2 2 3 3 3 3 3 3 3 4 5 5 6 5 6 8 8 8 9 9 9 9 10 10 11 11 11 12 12 13 13 13 14 14 15 16 16 17 17 18 18 19 19
2 2 2 2 2 2 3 2 3 3 3 3 3 3 5 6 6 6 7 8 8 9 9 10 9 9 9 9 10 10 10 11 11 11 11 12 13 13 15 13 15 16 16 17 18 19 19
2 2 2 2 2 2 2 3 3 3 3 3 3 4 4 5 6 7 7 8 8 9 8 9 10 9 10 10 10 10 9 9 10 10 11 11 12 11 13 13 14 17 16 17 17 18 18
2 3 3 3 2 3 3 3 3 3 3 3 3 4 5 5 6 6 7 8 9 9 8 8 9 9 10 9 9 9 10 10 10 10 10 11 11 11 13 14 15 17 17 16 16 18 14
3 3 3 3 3 3 3 3 2 3 3 3 3 3 5 6 6 8 7 8 8 7 7 8 9 9 10 7 7 9 10 11 12 12 11 11 11 12 11 12 13 16 16 15 15 16 15
3 4 3 3 3 3 3 3 3 3 3 3 3 3 4 4 6 7 8 7 9 8 7 7 8 7 9 7 8 9 10 10 11 11 11 10 11 11 11 12 14 14 15 15 16 16 15
4 4 4 4 4 4 3 3 3 3 3 3 3 3 4 3 5 8 9 8 8 8 7 7 7 6 6 7 8 8 9 10 11 12 12 12 12 12 12 12 12 14 15 15 15 15 14
4 4 4 4 4 4 4 4 4 3 4 3 4 4 3 4 4 6 7 9 10 10 9 8 9 7 7 8 7 9 8 7 11 12 10 12 12 13 13 13 13 13 13 12 12 12 13

GFSGBSN_925_temp_066.txt.gz
Temp
7 7 7 7 7 7 7 7 7 8 7 7 8 7 7 7 7 7 8 8 8 9 9 9 8 9 11 17 19 20 18 18 17 18 22 24 24 25 25 26 26 24 27 28 27 27 26
7 7 7 7 7 7 7 7 7 7 7 7 7 7 7 7 7 7 7 8 8 9 9 9 8 8 12 15 18 17 16 17 19 20 22 24 25 26 25 26 25 27 26 27 27 27 27
7 7 7 7 7 7 7 7 7 7 7 7 7 7 7 7 7 7 8 8 9 9 9 9 7 8 12 16 17 17 17 17 18 20 23 23 24 24 25 25 26 26 25 26 27 27 27
6 6 7 7 7 7 7 7 7 7 7 7 7 7 7 7 7 8 8 9 9 10 9 9 8 9 13 16 16 15 16 17 17 18 19 22 22 24 24 25 24 24 25 25 28 27 27
6 6 6 6 7 7 7 6 6 6 6 7 7 7 7 7 7 7 8 9 10 9 9 8 9 11 15 15 15 17 17 17 19 18 19 20 22 23 24 23 24 24 25 26 27 27 26
6 6 6 6 6 6 6 6 6 6 6 6 6 6 7 7 7 7 8 10 10 9 10 10 11 12 16 18 18 17 16 16 18 20 20 20 22 22 23 24 23 25 25 26 26 26 25
5 5 6 6 6 6 6 5 5 6 6 6 6 6 7 7 7 8 8 11 14 14 12 13 15 15 16 17 16 18 15 17 19 20 20 21 21 22 24 24 25 26 26 26 27 26 25
5 5 6 6 5 5 5 5 5 6 6 6 6 6 6 6 7 8 9 11 8 8 8 12 13 14 14 15 15 17 15 17 18 19 21 21 20 23 24 24 24 24 25 25 27 25 25
5 5 5 5 5 5 5 5 5 5 5 6 6 6 6 6 7 8 9 9 8 8 10 13 14 14 15 14 14 16 16 16 18 19 21 21 22 22 23 23 22 24 24 25 25 25 25
5 5 5 5 5 5 5 5 5 5 5 5 6 6 6 6 8 8 10 8 8 8 10 15 14 15 14 15 14 16 16 15 17 18 21 21 23 22 22 22 23 23 25 24 24 23 25
4 4 4 5 5 5 5 5 5 5 5 5 6 6 6 6 7 9 9 8 8 9 14 16 16 16 16 16 17 17 16 16 15 18 20 21 21 21 21 23 24 23 25 23 24 24 24
4 4 4 4 5 5 5 5 5 5 5 5 5 5 5 7 7 8 8 8 9 11 14 16 17 17 15 16 17 17 16 17 17 15 15 18 22 22 22 23 24 24 23 23 23 24 22
4 4 4 4 4 4 5 5 4 5 4 5 5 5 5 6 9 7 7 10 11 12 17 16 16 17 17 17 17 17 14 15 16 15 15 16 20 22 23 23 23 23 23 22 22 22 22
4 4 4 4 4 4 5 4 5 4 4 4 5 5 6 6 7 6 7 9 10 15 15 17 16 17 17 18 18 17 16 15 17 18 18 17 17 21 22 23 22 22 23 23 22 22 24
3 3 3 4 4 4 4 4 5 4 4 4 4 5 6 7 6 6 6 9 13 14 15 14 16 16 17 17 17 17 17 17 17 19 18 18 18 21 22 22 23 22 22 25 23 22 23
3 3 3 3 4 4 4 4 4 4 4 4 5 6 7 7 6 6 6 9 12 14 13 14 14 15 15 15 16 15 16 17 17 19 20 20 19 21 22 22 23 23 24 22 22 21 21
2 2 2 3 3 3 4 4 4 4 4 4 4 7 8 7 6 6 7 10 11 13 14 13 13 13 14 14 15 14 12 14 15 17 19 20 20 20 22 21 22 22 22 23 24 24 23
3 3 3 3 3 3 3 3 3 4 4 3 5 5 6 6 6 8 7 10 10 12 14 13 13 13 13 14 14 15 12 13 14 15 18 19 19 20 21 23 24 24 23 23 22 22 22
2 2 2 2 2 3 3 3 3 4 4 4 5 7 6 6 7 8 8 9 10 11 13 13 13 13 14 13 14 15 11 13 14 14 16 18 19 19 20 21 22 22 23 23 23 23 22
2 2 2 3 3 2 3 3 3 3 4 3 4 5 7 6 8 8 9 9 9 11 12 13 13 12 13 13 14 14 14 12 12 14 13 16 18 19 20 20 20 20 22 23 22 21 21
2 2 2 3 3 3 3 3 3 3 4 3 3 5 9 6 7 7 8 9 8 10 11 12 12 12 12 12 13 13 14 15 13 14 15 16 14 17 18 18 18 19 19 21 22 22 22
2 2 2 2 3 2 3 3 3 3 4 3 3 4 6 8 6 6 6 7 9 11 11 11 11 12 12 12 13 12 13 14 13 13 14 15 14 15 16 18 18 18 20 21 21 22 22
2 2 2 2 2 2 2 3 3 3 4 3 3 4 5 8 8 8 7 9 8 10 12 12 12 10 10 11 12 13 13 13 13 12 12 13 13 14 15 17 18 17 19 20 20 21 22
2 2 2 2 2 2 2 3 3 3 3 3 3 5 4 5 8 9 9 8 8 9 10 11 11 10 11 12 12 12 13 13 13 13 13 13 13 14 15 15 14 19 20 20 20 20 20
2 2 2 2 2 2 2 3 3 3 3 3 3 3 5 6 8 9 9 10 10 9 10 10 10 9 8 9 10 11 12 11 13 13 14 14 14 14 15 15 18 20 19 19 20 18 19
3 3 2 3 3 3 3 3 3 3 3 3 3 3 4 6 8 10 10 10 9 10 9 8 7 7 7 9 10 11 12 13 13 12 14 14 14 14 13 15 15 19 18 18 18 19 19
3 3 3 3 3 3 3 3 3 3 3 3 3 2 3 4 7 10 9 10 11 9 10 9 7 6 6 9 10 11 12 13 13 12 11 11 12 12 13 14 17 18 17 17 17 17 18
3 3 4 3 3 3 3 3 3 3 3 2 2 2 3 4 7 8 10 10 10 9 8 8 7 7 7 9 10 11 12 13 13 14 13 13 13 13 14 13 13 16 18 17 16 17 16
3 3 4 4 4 3 3 4 3 3 3 2 3 3 3 4 6 6 8 10 11 11 10 8 10 10 9 10 11 12 12 12 14 13 15 14 16 15 16 16 16 16 16 15 14 14 14

GFSGBSN_925_temp_072.txt.gz
Temp
7 7 7 7 7 7 7 7 7 7 7 7 7 7 7 7 7 7 8 8 9 10 10 9 9 7 9 17 19 21 21 22 20 20 22 23 23 25 25 26 27 27 29 30 30 30 30
7 7 7 7 7 7 7 7 7 7 7 7 7 7 7 7 7 7 8 9 9 10 10 10 9 7 10 14 20 22 22 22 22 24 23 23 25 26 26 27 27 28 29 29 30 30 30
7 7 7 7 7 7 7 7 7 7 7 6 7 7 7 7 7 7 8 9 9 10 10 9 9 8 12 16 20 20 20 22 22 22 23 24 25 25 27 26 28 28 27 28 29 30 29
6 6 7 7 7 7 7 7 7 7 7 6 6 6 6 7 7 7 8 9 10 11 11 10 9 10 13 17 19 20 20 21 21 21 22 22 23 23 24 27 27 26 27 26 28 29 30
6 6 6 6 6 6 7 6 6 6 7 6 6 6 6 6 7 7 8 10 11 12 11 10 10 12 16 20 19 21 21 20 21 22 22 22 23 21 23 23 23 25 24 25 27 29 30
6 6 6 6 6 6 6 6 6 6 7 6 6 6 6 6 7 8 9 10 14 12 13 12 14 16 18 20 22 21 21 20 21 21 21 21 22 20 21 22 21 23 24 26 27 30 30
6 6 6 6 6 6 6 6 6 6 6 6 6 6 6 6 7 8 8 9 17 15 15 17 18 18 20 21 20 21 21 21 21 20 19 20 19 20 21 23 23 25 25 26 29 30 30
5 5 5 5 6 6 6 6 6 6 6 6 6 6 6 6 7 8 8 12 14 12 12 15 16 17 18 18 18 20 21 19 19 18 20 18 17 19 21 23 24 24 23 25 28 30 29
5 5 5 5 5 5 5 5 6 6 6 6 6 6 6 6 7 8 10 13 13 13 12 16 20 20 20 20 19 19 21 20 19 19 18 16 18 19 18 22 23 23 23 24 26 28 29
5 5 5 5 5 5 5 5 5 5 5 6 6 5 6 6 7 10 13 13 13 12 12 19 19 20 20 19 19 21 21 20 17 16 18 14 15 18 16 18 23 22 25 25 26 26 25
5 5 4 4 4 4 5 5 5 5 5 5 5 5 5 6 7 9 12 12 13 12 14 20 20 20 21 19 20 20 21 20 18 16 14 15 15 17 16 18 23 22 24 23 26 26 26
4 4 4 4 4 4 5 5 4 4 5 5 5 5 5 7 8 8 11 11 11 10 15 20 21 20 20 20 21 20 19 20 18 17 17 16 17 14 15 18 21 23 22 20 24 25 23
4 4 4 4 4 4 4 4 4 4 4 5 5 5 5 6 8 9 9 11 11 13 21 21 21 21 20 20 22 20 18 17 16 14 14 15 15 15 16 15 19 20 18 17 20 22 22
4 4 4 4 4 4 4 4 4 4 4 5 5 5 5 6 7 8 9 10 11 18 19 21 20 20 19 21 22 21 19 17 17 16 15 14 14 15 16 17 17 19 19 20 19 21 23
4 4 4 4 3 3 3 4 4 4 3 4 4 5 6 7 7 7 7 8 14 17 19 20 20 18 19 21 21 20 19 19 19 17 13 14 16 18 17 17 17 17 18 21 22 22 22
3 3 3 3 3 3 3 4 4 4 4 3 5 6 7 9 8 8 6 9 14 17 18 18 17 18 18 20 19 19 18 15 15 17 17 15 13 17 17 18 17 17 19 18 22 19 18
3 3 3 3 3 3 3 3 3 3 3 4 4 5 8 8 8 6 7 10 13 15 16 16 16 16 18 19 19 19 18 12 14 14 15 15 12 15 15 14 16 18 20 20 22 23 21
3 3 3 3 3 3 3 3 2 3 3 3 3 5 10 9 6 6 6 10 13 15 16 16 16 16 16 17 17 17 18 14 14 14 14 14 13 14 16 19 18 20 19 20 20 20 22
2 2 3 3 2 3 3 3 3 3 3 2 5 8 9 7 7 8 10 11 12 13 15 15 15 16 16 16 16 17 17 15 14 13 11 11 14 14 16 19 17 17 18 18 20 20 20
2 2 2 2 2 2 2 2 3 3 3 1 4 5 9 7 9 9 10 10 12 14 14 15 15 16 16 16 17 15 15 15 14 13 11 12 13 14 15 16 14 17 19 20 19 17 19
2 3 2 2 2 2 2 2 2 2 3 1 4 6 8 7 8 9 10 9 12 13 15 15 14 15 15 14 16 15 17 15 13 11 13 11 11 13 13 14 16 16 18 19 19 20 21
2 2 2 2 2 2 2 2 2 2 3 2 4 7 9 7 9 10 10 10 11 12 13 13 14 15 15 15 15 14 16 15 14 14 14 12 11 12 13 16 16 14 19 19 18 20 22
2 2 2 2 2 2 2 2 2 3 2 2 4 6 7 7 9 9 9 11 12 13 13 12 12 13 13 14 14 14 14 13 13 14 13 13 11 11 12 13 15 17 17 18 20 21 21
2 2 2 2 2 2 2 2 2 3 3 3 3 7 6 6 8 9 10 11 11 12 12 14 14 13 13 13 14 14 15 15 15 14 15 13 12 10 11 12 14 17 17 18 19 18 18
2 2 2 2 2 2 2 2 3 3 3 3 3 4 6 6 9 10 11 10 10 12 11 12 13 10 11 12 12 12 13 13 13 14 15 14 13 11 11 12 13 17 15 16 19 16 16
2 2 2 3 3 3 2 3 3 3 3 3 4 4 4 5 7 10 10 11 10 10 11 11 10 10 10 9 9 10 12 13 13 14 16 15 14 13 12 12 13 15 16 14 13 12 16
2 3 3 3 3 3 3 3 3 3 3 3 4 4 4 4 7 7 8 8 11 12 10 10 8 9 10 9 9 10 12 15 13 14 14 13 13 12 13 12 16 19 16 15 13 13 15
3 3 3 3 4 4 3 3 3 3 3 2 4 5 4 4 6 8 9 8 8 10 8 9 8 9 7 7 10 12 12 13 14 15 14 13 13 12 13 14 14 17 17 16 15 15 17
3 3 3 3 4 4 4 3 3 3 3 2 4 5 4 4 7 7 7 8 9 9 6 6 7 7 10 10 11 10 12 12 14 14 17 14 15 15 15 15 16 16 16 16 16 15 14

GFSGBSN_925_temp_075.txt.gz
Temp
7 7 7 7 7 7 7 7 7 7 7 7 7 7 7 6 6 7 7 8 8 9 9 9 9 7 9 12 15 21 20 20 21 20 20 20 20 20 19 21 22 22 24 25 26 26 27
7 7 7 7 7 7 7 7 7 7 7 7 7 7 7 6 6 6 7 8 9 9 9 9 8 7 8 10 18 19 20 20 21 21 21 21 21 21 21 22 22 24 24 25 26 26 26
6 6 7 7 7 7 7 7 7 6 6 7 6 6 7 6 6 7 7 8 9 9 10 10 9 7 9 10 18 19 19 19 20 20 20 21 21 20 20 21 23 24 23 24 25 25 25
6 6 6 6 7 7 6 6 6 6 6 6 6 6 6 6 6 7 7 8 9 10 11 10 9 8 9 15 17 17 18 19 20 21 21 21 22 20 20 21 22 21 23 21 24 25 26
6 6 6 6 6 6 6 6 6 6 6 6 6 6 6 6 6 7 7 8 11 12 12 11 9 9 11 18 16 20 19 20 20 21 21 21 21 19 19 19 19 20 19 20 23 26 26
6 6 6 6 6 6 6 6 6 6 6 6 6 6 6 6 6 7 7 9 14 13 14 10 11 11 14 17 20 20 21 20 20 19 20 20 17 17 17 16 17 19 20 21 22 25 25
6 6 6 6 6 6 6 6 6 6 6 6 6 6 6 6 6 7 7 8 11 12 12 13 14 14 16 19 18 19 20 20 19 19 16 17 15 15 16 18 19 20 21 21 23 26 26
5 5 5 5 5 5 6 6 5 6 6 6 6 6 6 6 7 7 8 8 13 13 10 13 14 14 15 16 16 18 19 18 18 16 17 16 15 16 18 20 20 20 20 20 22 24 25
5 5 5 5 5 5 5 5 5 5 6 6 6 5 6 6 7 8 8 10 12 13 8 12 15 15 16 17 16 17 18 17 17 16 16 16 18 18 17 18 18 18 18 21 22 24 24
5 5 5 5 5 5 5 5 5 5 5 5 5 5 5 6 7 7 8 10 11 12 9 13 17 19 19 19 17 19 20 18 16 16 15 13 15 15 16 17 18 16 18 21 23 22 18
4 4 4 4 4 4 4 4 4 4 5 5 5 5 5 6 5 6 9 9 11 11 9 19 19 20 20 18 19 19 20 18 15 15 14 14 14 14 14 16 18 17 19 19 19 17 18
4 4 4 4 4 4 4 4 4 4 4 4 5 5 5 6 6 7 7 8 10 9 10 18 19 18 18 18 19 18 18 18 18 16 15 15 16 14 14 17 18 17 16 19 17 17 16
4 4 4 4 4 4 4 4 4 4 4 5 5 5 5 5 5 7 7 8 8 9 17 19 18 19 18 19 18 17 16 15 13 12 12 14 15 15 14 14 16 16 16 15 16 15 16
3 3 4 4 4 4 4 3 4 4 4 4 4 4 4 4 5 6 7 7 8 14 15 20 20 20 19 19 19 18 16 14 15 14 13 12 12 15 15 14 15 17 14 16 16 16 19
3 4 4 4 3 3 3 3 3 4 4 4 4 3 4 5 6 6 5 6 9 13 17 17 18 18 18 19 18 19 16 15 16 15 13 13 14 16 16 16 15 15 13 16 15 18 15
3 3 3 3 3 3 3 3 3 3 3 3 3 3 4 6 7 7 5 6 10 13 15 14 15 17 16 17 18 18 16 13 15 16 15 14 12 16 17 15 14 15 17 14 13 15 16
3 3 3 3 3 3 3 3 3 3 3 3 3 3 6 7 7 5 5 7 10 12 12 14 14 15 16 15 16 17 14 12 14 14 14 15 12 14 14 13 13 14 13 13 14 15 17
3 3 3 3 3 3 3 3 3 3 2 2 3 3 7 8 5 5 5 8 10 10 12 12 13 14 14 14 14 15 15 13 14 14 13 12 12 12 14 16 16 15 14 14 14 16 18
3 2 2 3 3 3 2 2 2 3 3 2 3 3 6 7 5 5 7 8 8 9 11 12 13 14 15 14 13 15 14 13 13 13 11 11 11 12 14 16 18 15 15 15 14 14 15
2 2 2 2 2 2 2 2 2 2 3 2 2 3 4 3 3 6 6 8 9 11 11 12 13 14 14 13 14 14 15 13 13 13 11 11 12 12 12 13 11 12 14 16 14 14 16
2 2 2 2 2 2 2 2 2 2 2 2 1 3 5 1 4 5 6 7 8 10 12 13 12 13 13 12 13 13 14 12 13 11 11 11 10 12 13 13 13 13 13 13 15 14 15
2 2 2 2 2 2 2 2 2 2 2 2 3 3 5 4 5 5 7 8 8 9 9 10 12 13 12 11 13 13 13 12 12 11 11 11 10 11 12 15 13 13 14 13 15 16 15
2 2 2 2 2 2 2 2 2 2 2 0 2 3 4 5 6 5 6 7 9 11 11 11 9 9 9 11 11 12 11 11 12 12 9 10 10 9 11 12 11 12 14 14 15 16 16
2 2 2 2 2 2 2 2 2 2 2 2 2 4 3 3 5 7 8 8 6 8 9 11 11 9 10 11 11 11 11 12 11 11 12 11 11 10 10 11 13 14 16 16 15 15 16
2 2 2 2 2 3 3 3 3 3 2 2 3 3 3 2 5 7 8 9 9 9 8 10 11 8 8 10 8 9 9 11 11 12 11 12 11 10 10 11 13 15 13 13 15 13 13
2 2 2 2 2 3 3 2 2 3 2 2 2 3 3 3 4 8 6 7 6 7 8 9 7 8 7 8 7 8 8 11 11 12 13 13 11 10 10 11 12 14 13 14 15 12 12
2 2 2 2 3 3 3 3 3 3 3 2 3 3 3 3 4 6 5 5 5 5 6 8 8 8 8 6 5 6 8 13 11 11 11 11 11 10 10 10 12 15 14 15 12 12 12
2 2 2 3 3 3 3 3 3 3 3 2 3 3 3 2 4 5 6 5 6 6 6 6 7 7 7 5 6 8 7 11 11 9 12 11 10 9 10 11 11 14 13 12 12 12 13
2 2 2 3 3 3 3 4 3 3 3 2 3 3 4 3 3 5 6 6 7 7 6 4 5 6 8 8 7 7 8 9 11 10 12 11 12 11 12 11 13 13 12 13 13 12 12

GFSGBSN_925_temp_081.txt.gz
Temp
7 7 7 7 7 7 7 7 7 7 7 7 6 6 6 6 6 6 6 6 7 6 6 6 6 6 7 8 10 18 17 17 18 17 16 18 17 17 17 17 17 17 18 19 19 19 19
6 6 6 7 7 7 6 6 6 6 6 6 6 6 6 6 6 6 6 7 7 7 7 6 6 6 8 7 15 16 16 17 18 17 17 18 18 18 18 17 17 18 19 19 19 19 20
6 6 6 6 6 6 6 6 6 6 6 6 6 6 6 6 6 6 6 7 7 8 8 7 6 6 8 8 15 16 15 16 17 18 17 19 19 19 18 18 18 19 17 18 19 20 19
6 6 6 6 6 6 6 6 6 6 6 6 6 5 6 6 6 6 6 7 8 11 9 7 6 7 8 12 13 13 15 15 17 17 17 19 19 17 17 18 17 18 18 17 20 20 20
6 6 6 6 6 6 6 6 6 6 6 6 6 5 6 6 6 6 7 9 11 10 10 8 7 8 9 13 12 17 16 16 18 19 19 19 18 16 18 16 15 15 16 16 18 21 20
6 6 6 6 6 5 6 6 6 5 5 5 5 6 6 6 6 6 7 10 12 10 9 8 8 9 11 15 16 17 17 17 17 18 18 18 14 14 13 13 14 14 15 15 16 19 19
6 5 5 5 5 5 6 5 5 5 5 5 5 5 5 6 6 6 7 9 8 9 9 10 11 11 12 14 15 16 16 17 17 17 15 16 14 13 13 14 15 15 15 16 16 18 18
5 5 5 5 5 5 5 5 5 5 5 5 5 5 5 6 6 6 7 7 7 6 5 9 10 11 12 13 12 14 16 16 16 14 15 14 13 14 15 15 15 15 14 15 17 18 19
5 5 4 4 4 4 5 5 4 4 4 4 4 4 5 5 6 6 6 7 6 6 6 10 12 12 12 12 11 13 15 15 15 14 14 13 15 16 15 15 15 15 14 15 15 17 18
4 4 4 4 4 4 4 4 4 4 4 4 4 4 5 4 6 5 6 7 7 7 6 10 11 12 14 13 11 15 16 15 14 14 14 14 14 15 15 14 15 13 16 16 16 16 15
4 4 4 4 4 4 4 4 4 4 4 4 4 4 5 4 4 4 6 6 8 8 7 14 15 15 14 14 16 13 16 16 14 14 14 14 13 13 13 14 14 14 15 15 16 14 14
4 4 3 3 3 3 3 3 3 3 3 4 4 4 4 5 5 5 5 7 7 7 7 13 16 15 14 15 17 15 15 16 14 14 14 14 14 14 14 14 14 15 15 15 15 15 13
3 3 3 3 3 3 3 3 3 3 3 3 4 4 4 4 4 5 5 5 6 6 12 13 13 13 14 15 16 16 14 13 12 12 12 13 13 14 14 13 14 14 14 11 12 12 14
3 3 3 3 3 3 3 3 3 3 3 3 3 3 4 5 5 4 4 5 5 9 10 13 12 12 13 15 15 15 14 13 13 13 11 11 12 12 13 13 13 12 13 12 14 13 15
3 3 4 3 3 3 3 3 3 3 3 3 3 3 3 6 5 4 2 5 7 9 10 10 11 12 12 13 13 14 13 14 13 13 13 11 12 14 13 14 14 13 13 14 13 14 14
3 3 3 3 3 3 3 3 3 3 3 3 3 3 3 5 4 4 2 5 7 9 9 9 9 9 9 9 12 13 13 13 13 13 14 13 12 14 14 14 14 13 13 13 12 14 15
3 3 3 3 3 3 3 3 3 3 3 3 3 1 4 5 3 3 3 5 6 9 9 8 9 8 8 8 12 13 12 12 12 13 13 12 13 13 14 13 13 13 13 12 13 13 15
3 3 3 2 2 2 2 3 3 2 3 3 2 -2 4 4 2 2 4 5 7 7 8 7 9 10 7 7 10 13 12 12 11 12 11 11 12 11 11 14 14 13 13 13 13 14 14
3 2 2 2 2 2 2 2 2 2 2 2 1 2 4 4 2 3 4 5 6 6 6 7 9 9 7 7 7 12 12 12 12 11 11 11 12 10 12 13 13 13 13 12 12 12 14
2 2 2 2 2 2 2 2 2 2 3 2 1 1 -1 1 -1 1 3 5 4 7 7 8 8 9 9 7 8 11 12 12 11 11 11 11 10 10 11 11 11 11 12 12 11 12 13
2 2 2 2 2 2 2 2 2 3 3 2 1 0 0 -2 2 2 3 2 5 6 7 8 8 8 8 7 8 11 12 11 11 11 10 9 9 10 10 11 11 11 12 13 13 12 12
2 2 2 2 2 2 2 2 2 2 2 2 0 1 2 0 4 3 3 5 5 5 5 7 7 9 9 7 10 10 11 11 11 9 9 9 9 9 9 11 12 12 13 14 13 13 14
2 2 2 2 2 2 2 2 3 3 2 1 1 1 2 2 3 3 3 4 4 4 6 8 7 6 7 9 10 10 10 10 10 9 9 9 8 8 8 10 10 10 12 13 13 14 14
2 2 2 2 2 2 2 2 3 3 2 1 1 1 2 1 4 5 5 5 4 5 6 6 7 7 9 9 9 10 10 10 9 9 9 8 8 8 7 8 8 13 13 12 12 13 13
2 2 2 2 2 2 2 3 3 3 2 1 2 2 2 1 3 4 5 6 6 5 5 7 6 7 6 8 8 9 8 10 10 9 8 9 8 7 7 7 10 13 12 11 10 11 11
2 2 2 2 2 2 2 2 2 3 3 2 2 2 1 1 2 4 3 5 4 5 5 6 7 5 7 6 7 8 8 10 10 10 10 8 8 8 7 8 9 12 13 12 11 11 10
2 1 2 2 2 2 2 2 3 3 3 1 2 1 2 1 1 3 3 3 4 4 4 5 5 6 6 4 5 6 8 9 9 10 9 7 7 8 8 8 10 13 12 12 11 11 10
1 1 1 2 2 2 2 3 3 3 3 3 2 2 2 -1 1 4 4 3 3 3 1 4 4 5 6 6 6 6 5 7 8 9 10 9 8 8 7 8 9 11 12 10 10 9 9
1 1 2 2 2 2 2 3 3 3 3 2 2 2 2 1 1 3 4 4 4 5 3 3 3 4 4 5 5 7 6 5 7 7 10 9 9 9 10 8 9 9 10 9 8 8 8

GFSGBSN_925_temp_087.txt.gz
Temp
7 7 7 7 7 6 6 6 6 6 6 6 6 6 6 6 6 6 6 6 7 7 7 7 6 6 7 9 12 16 15 16 16 15 16 17 17 17 17 17 17 17 18 19 19 20 20
7 7 6 6 6 6 6 6 6 6 6 6 6 6 6 6 6 5 6 7 8 9 9 10 6 6 6 9 15 15 15 16 15 15 15 16 17 18 18 18 18 18 18 18 19 19 20
7 6 6 6 6 6 6 6 5 5 5 6 5 5 5 5 5 5 6 8 9 9 10 11 8 6 7 9 14 14 13 14 15 14 15 16 17 18 17 17 18 18 18 18 18 20 20
7 7 6 6 6 6 6 6 5 5 5 5 5 5 5 5 5 6 6 8 9 9 10 11 8 7 8 11 12 13 13 13 15 15 13 16 17 17 17 18 18 17 17 17 19 18 19
7 7 6 6 6 6 6 6 6 5 5 5 5 5 5 5 5 6 7 9 9 8 9 8 7 7 9 12 12 14 14 13 14 13 14 16 16 16 16 17 16 15 17 16 18 19 19
7 6 6 6 6 5 5 6 5 5 5 5 4 4 4 4 5 6 7 10 8 8 8 8 8 8 11 12 13 13 14 13 15 14 14 15 15 16 15 16 16 16 15 16 17 18 19
6 5 5 5 5 5 5 5 5 5 4 4 4 4 4 5 5 6 7 8 6 7 6 6 8 8 10 12 12 14 15 14 15 16 15 15 15 15 15 16 17 16 15 15 16 17 17
5 5 5 5 4 4 5 4 4 4 4 4 4 4 5 6 6 6 7 5 4 3 4 7 7 8 8 9 9 13 14 14 15 15 15 14 15 15 15 15 15 16 15 15 16 16 17
5 5 4 4 4 4 4 4 4 4 4 4 4 4 5 5 6 6 5 4 4 3 4 7 9 9 10 9 9 10 13 14 15 14 15 14 15 15 15 15 14 15 15 15 15 16 17
5 4 4 4 4 3 3 3 4 4 3 3 3 4 4 5 6 4 5 5 5 4 7 9 11 12 12 12 10 12 13 15 14 14 14 15 16 15 14 15 15 14 15 15 15 15 16
4 5 4 4 3 3 3 3 3 3 3 3 3 4 4 4 4 4 5 5 6 4 8 12 13 13 13 12 13 14 13 14 14 14 15 15 14 14 15 15 15 15 15 15 15 15 15
4 4 4 3 3 3 3 3 3 3 3 3 3 4 3 4 4 5 5 6 5 8 8 10 12 11 12 13 13 14 13 14 14 14 14 15 14 14 15 14 15 15 15 15 15 15 14
4 4 3 3 3 3 3 3 3 3 3 3 4 4 4 3 4 4 5 5 7 7 10 10 9 9 11 10 12 12 13 12 13 12 13 13 13 14 14 14 14 14 14 14 14 13 15
3 4 3 3 3 3 3 3 3 3 3 3 4 4 4 4 3 3 4 6 6 8 8 9 8 9 11 9 11 10 9 12 13 13 13 13 12 13 14 15 14 13 14 15 15 15 15
3 3 3 3 3 3 3 3 3 3 3 3 4 4 4 3 4 3 3 3 7 7 7 6 8 9 10 10 10 9 9 11 13 13 14 13 13 13 13 14 15 13 13 14 13 14 14
3 3 3 3 3 3 3 3 2 2 3 3 3 2 3 3 3 3 2 4 6 6 7 7 6 8 7 8 8 9 8 12 13 13 14 13 12 13 13 14 14 14 14 13 12 13 13
3 3 3 3 2 2 2 2 2 2 3 3 3 1 3 3 3 4 2 4 5 6 6 6 6 6 7 7 8 8 8 10 10 12 13 14 14 13 13 13 13 13 13 12 12 13 14
3 3 3 2 2 2 2 2 2 2 3 3 1 1 2 3 2 2 3 4 5 6 6 6 6 6 6 7 7 7 7 8 6 8 13 12 13 13 13 13 14 14 14 14 12 13 12
3 3 3 2 2 2 3 2 2 2 2 2 0 1 2 2 1 2 3 4 5 5 5 6 6 7 7 6 5 8 8 9 6 7 12 12 12 13 12 13 13 13 11 10 11 10 12
3 2 2 2 2 2 2 2 2 2 2 2 -1 -1 0 2 -0 2 2 3 4 6 5 5 6 6 6 6 8 7 7 7 6 9 11 12 11 13 13 12 11 11 12 13 12 12 13
3 2 2 2 2 2 2 2 2 2 2 2 -1 -0 1 -0 2 2 1 2 3 4 5 6 5 6 6 6 7 7 7 7 7 9 10 11 11 11 11 11 11 12 12 12 12 13 12
3 2 2 2 2 2 2 2 2 2 2 1 0 1 1 2 1 -1 2 2 4 4 4 5 4 6 6 5 8 7 7 8 8 9 10 10 10 10 11 11 11 11 12 12 12 12 12
2 2 2 2 2 2 2 2 2 2 2 1 1 1 1 2 2 2 2 3 3 3 5 6 4 5 6 7 7 8 8 8 8 9 10 9 9 9 10 10 11 11 12 13 13 13 13
2 2 2 2 2 2 2 2 2 2 2 2 2 1 1 1 2 3 4 4 4 3 3 4 5 5 7 6 7 7 8 8 9 9 9 9 9 9 9 9 10 12 13 12 12 12 12
2 2 1 2 2 2 2 2 2 2 2 1 1 1 1 1 2 3 4 4 4 3 3 4 3 4 4 6 7 9 9 10 10 9 9 9 9 8 9 9 11 12 12 12 11 11 7
2 2 2 2 2 2 2 2 2 2 2 2 1 2 1 0 2 3 3 3 3 4 4 4 5 5 3 6 8 9 9 9 10 9 8 8 9 10 8 9 9 11 11 11 11 10 6
1 2 2 2 2 2 2 2 2 2 3 2 2 1 0 1 2 2 3 3 4 3 3 4 4 4 5 7 8 7 8 9 9 10 9 8 8 9 9 9 10 7 9 11 11 9 5
1 1 1 2 2 2 2 2 2 2 3 2 2 1 1 0 1 2 3 3 3 3 3 4 4 5 5 6 7 7 7 7 8 9 9 10 9 9 9 9 9 6 10 9 7 4 4
1 2 2 2 2 2 2 2 2 2 3 2 2 1 0 1 2 2 2 3 3 3 3 3 4 4 4 5 6 7 7 7 7 8 8 8 6 7 8 8 5 4 3 3 3 3 3